[{"header": {"dx": 0.06612293990616946, "dy": 0.0552356325346848, "nx": 98, "ny": 59, "la1": 35.046912555036876, "la2": 31.78801023549047, "lo1": -121.43107172385933, "lo2": -114.95102361305473, "refTime": "2026041011", "parameterCategory": 1, "parameterNumber": 2}, "data": [13.15, 13.15, 11.88, 8.58, 2.35, -0.0, -0.0, -3.93, -7.1, -6.6, -5.15, -0.0, -0.0, -0.0, -0.0, -4.8, -7.9, -7.27, -0.0, -0.0, -0.0, 2.28, 3.15, 4.0, 5.21, 2.97, 2.97, -0.0, -0.0, -0.0, -0.0, -8.94, -7.6, -6.71, -6.26, -6.26, 7.15, 7.6, 5.37, -0.0, -0.0, 9.83, 11.62, 10.79, 13.28, 13.89, 16.19, 17.85, 16.96, 16.54, 10.3, 7.85, 8.53, 9.02, 9.36, 9.69, 10.47, 11.31, 12.17, 12.17, 12.62, 12.62, 11.99, 11.72, 10.91, 10.91, 11.53, 11.77, 12.18, 12.33, 11.79, 11.54, 11.71, 11.64, 11.78, 11.45, 11.03, -12.96, -13.86, -11.18, -9.75, -6.95, -6.95, -5.36, -4.71, 0.0, 2.54, 4.46, 6.44, 8.21, 9.27, 9.67, 10.29, 10.66, 10.66, 10.66, 10.2, 9.6, 13.67, 13.59, 11.09, 8.31, 2.35, -0.0, -0.0, -2.02, -5.81, -6.6, -2.63, -0.0, -0.0, -0.0, -0.0, -0.0, -7.27, -8.22, -4.8, -2.28, -2.6, -0.0, 2.28, 3.32, 4.37, 2.83, -0.0, -6.64, -4.2, -0.0, -0.0, -0.0, -0.0, -4.43, -6.26, 7.15, 8.05, 8.49, 6.01, -0.0, 9.83, 0.0, 9.17, 10.12, 12.56, 15.25, 16.37, 17.16, 16.54, 10.82, 8.22, 8.41, 9.17, 9.08, 9.77, 10.59, 11.35, 11.69, 12.17, 12.62, 12.62, 12.21, 11.6, 10.55, 9.96, 10.18, 11.16, 11.77, 12.18, 11.92, 12.3, 11.54, 11.88, 12.01, 12.0, 12.0, 11.46, -12.96, -13.86, -11.18, -9.75, -6.95, -6.95, -5.36, -4.71, 0.0, 2.54, 4.46, 6.44, 8.21, 9.27, 9.67, 10.29, 10.66, 10.66, 10.66, 10.2, 9.6, 13.86, 13.59, 11.09, 6.2, 2.81, -0.0, -0.0, -2.43, -4.81, -7.59, -4.65, -0.0, -0.0, -0.0, -0.0, -4.8, -10.0, -8.22, -7.59, -5.2, -5.46, -3.53, -0.0, 2.49, 4.83, 4.37, 2.83, -8.94, -8.0, -4.96, -1.67, -0.0, 1.47, 3.8, 5.95, 8.49, 8.49, 8.94, 9.83, 10.28, 0.0, 6.2, 10.05, 11.64, 12.8, 14.93, 17.59, 16.54, 11.17, 7.59, 8.15, 9.3, 10.41, 10.79, 10.79, 11.16, 11.5, 12.17, 12.39, 12.79, 12.21, 12.45, 10.99, 9.96, 8.3, 8.44, 10.59, 11.31, 11.41, 11.6, 12.45, 12.46, 12.47, 12.07, 12.07, 11.62, 11.62, 13.86, -13.59, -11.4, -9.2, -6.95, -5.63, -5.36, -5.1, -4.46, 0.0, 4.46, 5.69, 9.05, 10.9, 10.91, 10.24, 10.63, 11.38, 11.03, 10.41, 9.74, 13.86, 13.44, 11.9, 6.2, -0.0, -0.0, -0.0, -0.0, -4.81, -5.31, -5.6, -0.0, -0.0, -0.0, -0.0, -7.9, -8.22, -8.53, -8.22, -5.2, -3.39, -3.39, -0.0, -0.0, 3.98, 5.06, 4.37, 4.96, -0.0, -6.01, -3.8, -1.75, -0.0, 3.8, 6.01, 8.4, 9.64, 11.18, 11.03, 9.48, 11.38, 13.28, 12.01, 12.96, 13.61, 15.36, 12.71, 8.73, 7.56, 9.46, 10.61, 11.37, 11.99, 10.55, 10.55, 10.37, 11.5, 12.21, 12.79, 13.15, 12.6, 11.85, 9.62, 7.19, 7.54, 7.78, 9.17, 9.59, 10.91, 11.75, 13.11, 13.23, 13.7, 12.01, 10.6, 11.18, 11.35, 13.15, -12.52, -11.6, -7.68, -6.95, -5.63, -6.32, -7.28, -5.69, 0.0, 4.14, 6.64, 10.28, 11.54, 10.9, 10.03, 10.8, 10.41, 8.4, 8.94, 8.44, 13.86, 13.86, 10.12, 3.47, -0.0, -0.0, -0.0, -0.0, -2.98, -5.31, -5.6, -0.0, -0.0, -0.0, -0.0, -0.0, -0.0, -0.0, -0.0, -8.53, -0.0, -0.0, -0.0, -0.0, 2.19, 5.0, 5.06, 6.64, 6.64, -0.0, -4.96, -5.46, -2.82, 5.2, 8.94, 10.38, 11.4, 12.96, 14.84, 14.66, 17.19, 17.1, 15.2, 13.86, 12.96, 11.21, 9.58, 8.93, 10.48, 11.26, 11.26, 11.26, 11.26, 11.26, 10.99, 11.16, 11.99, 12.21, 12.79, 12.38, 12.42, 9.96, 6.21, 5.6, 6.08, 7.68, 8.61, 8.67, 9.48, 11.25, 13.25, 14.3, 14.75, 14.3, 9.58, 6.42, 8.38, 9.3, -8.18, -11.09, -7.47, -5.86, -5.86, -6.98, -6.7, -3.6, 4.37, 6.64, 9.56, 11.2, 10.9, 9.69, 11.45, -0.0, -0.0, 8.72, 8.49, 8.8, 13.86, 13.86, 6.4, -0.0, -0.0, -0.0, -0.0, -0.0, -0.0, -3.47, -3.82, -0.0, -0.0, -0.0, -0.0, -0.0, -0.0, 12.07, 12.07, -12.52, -12.52, -0.0, -0.0, 4.1, 2.93, 5.4, 7.24, 6.71, 7.59, 7.59, 4.2, -0.0, -0.0, 8.53, 13.15, 12.96, 12.96, 13.77, 17.43, 8.2, 16.09, 6.4, 8.85, 10.41, 10.41, 9.27, 8.93, 10.41, 11.2, 11.21, 11.21, 10.73, 11.2, 10.79, 11.99, 12.45, 12.04, 12.45, 12.72, 12.82, 11.87, 6.21, 4.24, 4.48, 6.44, 7.43, 8.32, 8.32, 9.97, 11.34, 12.86, 13.99, 14.95, 15.49, 15.65, 4.65, 1.84, 0.0, -2.97, -9.62, -6.32, -4.44, -4.71, -5.69, -4.68, 0.0, 5.41, 10.12, 11.14, 10.51, 8.85, 9.77, -0.0, -1.4, 2.28, 8.94, 9.11, 9.9, 13.86, 12.39, -0.0, -0.0, -0.0, -0.0, -0.0, -0.0, -0.0, -3.25, -3.53, -0.0, -0.0, 10.28, 11.62, 11.18, 12.07, 12.52, 0.0, 0.0, 0.0, -10.12, 14.75, 15.2, 10.43, 12.79, 13.59, 13.88, 11.99, 7.9, 6.44, 3.49, 3.65, 7.27, 11.4, 13.86, 14.3, 13.72, 13.15, 13.41, -13.57, -5.8, 4.24, 9.48, 9.8, 8.15, 8.24, 8.54, 8.85, 10.01, 11.2, 10.8, 12.04, 12.3, 12.58, 12.66, 12.66, 12.44, 12.91, 12.35, 10.8, 4.32, 2.82, 4.9, 6.08, 7.43, 8.61, 9.5, 10.79, 12.58, 13.11, 13.23, 14.35, 17.19, 16.35, 8.68, -3.14, -2.83, 0.0, 0.0, -4.0, -3.15, -2.97, -3.25, -1.01, 2.88, 7.58, 10.25, 10.81, 9.48, 6.7, 11.62, -1.32, -1.67, 6.01, 8.38, 9.08, 10.0, 13.41, 12.39, -0.0, -0.0, -0.0, -0.0, -0.0, -0.0, -0.0, -0.0, -3.39, -0.0, 7.27, 7.9, 12.52, 11.18, 12.07, 12.96, 0.0, 12.96, 13.41, 13.41, 0.0, 0.0, 0.0, 10.43, 13.59, 11.06, 14.75, 6.0, 8.53, 8.53, 8.85, 11.2, 11.02, 12.52, 12.79, 10.73, 9.83, 11.03, -12.96, -13.86, -11.38, -0.0, 5.09, 6.0, 6.08, 8.1, 8.61, 8.59, 9.3, 10.8, 12.27, 12.35, 12.52, 12.52, 12.07, 12.07, 11.62, 11.51, 8.94, 2.1, 4.15, 5.2, 6.4, 8.83, 10.59, 10.8, 11.98, 12.91, 13.11, 13.62, 14.22, 16.47, 15.53, 14.75, -9.8, 0.0, 6.97, 8.1, 3.32, -2.11, -1.5, 0.0, 1.6, 4.31, 7.03, 9.31, 9.1, 8.32, 5.7, -2.26, -1.49, -0.0, 8.05, 7.53, 9.2, 9.2, 13.86, 10.12, -0.0, -0.0, -0.0, -0.0, -0.0, -0.0, -0.0, -0.0, -0.0, -0.0, -0.0, 9.17, 8.85, 12.52, 12.96, 12.96, 13.41, 12.96, 13.41, 9.48, 13.41, 0.0, 0.0, 5.2, 0.0, 0.0, 15.65, 13.86, 13.86, 15.2, 15.2, 13.86, 12.07, 11.62, 10.41, 9.6, 10.28, 10.73, -12.52, -14.3, -14.3, -12.96, -0.0, -0.0, 3.25, 7.44, 8.38, 8.91, 9.8, 9.27, 10.8, 11.91, 12.07, 11.51, 11.18, 10.27, 10.96, 11.28, 4.15, 2.95, 3.39, 5.77, 7.79, 9.8, 10.99, 11.62, 11.62, 11.35, 12.92, 13.41, 14.75, 15.2, 14.3, 13.15, 0.0, 2.82, 10.82, 13.23, 9.77, 0.0, 0.0, 0.68, 2.88, 4.84, 6.44, 7.9, 7.44, 5.7, 7.6, -0.0, -0.0, 7.6, 7.47, 8.0, 9.6, 9.03, 14.3, 7.93, -0.0, -0.0, -0.0, -0.0, -0.0, -0.0, -0.0, -0.0, -0.0, -0.0, 5.4, 9.8, 12.39, 13.41, 10.12, 0.0, 0.0, 0.0, 0.0, 12.96, 13.86, 10.12, 0.0, 0.0, 0.0, 0.0, 0.0, 12.79, 11.9, 14.39, 15.2, 13.41, 12.07, 10.73, 10.28, 9.26, 11.62, 12.3, 12.96, -11.6, -10.4, -10.73, -0.0, 3.68, 5.4, 7.78, 8.59, 8.23, 8.1, 8.1, 8.53, 9.3, 10.27, 10.75, 11.62, 10.0, 8.22, -0.0, 1.18, 1.84, 2.82, 6.0, 6.73, 9.21, 10.85, 10.81, 11.18, 10.09, 11.2, 12.63, 13.96, 14.67, 14.28, 13.01, 4.48, 3.82, 8.15, 11.64, 13.24, 11.38, 0.94, 1.32, 2.17, 3.78, 5.09, 5.7, 5.21, 4.83, 4.74, 6.71, 6.4, 5.06, 5.93, 8.82, 9.43, 8.37, 14.03, 7.93, -0.0, -0.0, -0.0, -0.0, 3.69, 4.66, 4.38, -0.0, -0.0, -0.0, -0.0, 12.39, 14.3, 14.3, 16.09, 12.65, 9.12, 8.28, 5.51, 12.33, 12.01, 10.43, 10.43, 0.0, 0.0, 0.0, 9.17, 10.12, 11.16, 9.17, 11.62, 0.0, 5.2, 11.28, 11.18, 11.18, 11.62, 13.86, 14.3, 13.41, 12.07, 11.62, 7.59, 2.6, 2.19, 4.15, 4.32, 4.08, 5.18, 6.15, 7.38, 7.51, 6.84, 6.84, 7.36, 10.4, -8.22, -4.15, -0.0, 1.84, 3.85, 4.11, 5.5, 6.78, 8.72, 9.48, 10.55, 11.62, 10.87, 11.5, 13.15, 13.57, 13.99, 13.96, 6.67, 3.32, 7.28, 10.86, 11.88, 11.7, 10.73, 5.06, 3.6, 2.99, 4.5, 4.74, 4.83, 3.2, 3.0, 3.2, 4.29, 4.29, 6.01, 9.81, 9.53, 5.46, 14.03, 10.12, 3.47, -0.0, -0.0, 3.58, 4.81, 4.66, 4.38, 4.1, 4.1, -0.0, 10.12, 14.3, 13.41, 12.52, 12.52, 14.3, 14.84, 16.33, 15.97, 15.65, 15.65, 16.09, 13.41, 12.96, 12.52, 7.6, 10.28, 8.94, 8.8, 10.73, 10.73, 9.39, 4.6, 9.75, 10.28, 10.4, 12.07, 13.41, 9.8, 6.2, 8.85, 8.22, 3.25, -0.0, -0.0, -0.0, 1.76, 1.52, 2.19, 3.82, 4.93, 5.48, 5.48, 5.38, 7.71, 8.37, 8.58, -3.25, -0.86, 2.04, 3.76, 1.3, 0.95, 4.29, 7.2, 8.74, 8.84, 9.17, 10.94, 12.88, 13.33, 13.09, 12.56, 12.45, 0.0, 0.0, 5.6, 9.8, 9.8, 9.48, 9.17, 8.4, 7.6, 8.0, 6.32, 5.9, 5.21, 4.46, 3.2, 3.32, 3.68, 3.68, 6.95, 10.12, 8.93, 0.0, 14.11, 11.9, 3.47, -0.0, 3.58, 3.58, 4.66, 4.52, 4.52, 4.24, 4.24, 6.2, 10.12, 14.75, 15.2, 15.2, 13.86, 12.96, 12.52, 12.96, 13.41, 12.91, 12.91, 12.91, 12.91, 12.47, 12.45, 12.22, 10.6, 8.94, 9.83, 11.18, 11.18, 10.73, 10.28, 9.83, -0.0, -0.0, -11.18, -11.62, -0.0, -0.0, 3.82, -0.0, -0.0, -2.17, -2.39, -2.49, -0.0, -0.0, -0.0, -0.0, 1.33, 2.7, 3.68, 3.82, 5.8, 11.13, 9.9, -0.0, -2.93, 1.03, 1.11, -0.0, -0.92, -0.0, 3.87, 6.42, 7.82, 9.54, 10.15, 10.51, 11.16, 11.03, 11.62, 13.41, -13.86, 0.0, 3.04, 5.4, 6.2, 6.45, 7.51, 6.0, 9.11, 9.64, 10.52, 9.75, 8.91, 8.48, 6.01, 4.46, 2.66, 4.21, 7.42, 10.48, 8.38, 0.0, 14.11, 12.79, 7.93, 3.47, 3.58, 8.18, 8.18, 7.93, 7.93, 7.69, 9.8, 10.12, 13.19, 15.2, 15.65, 16.09, 15.65, 15.2, 14.75, 14.3, 14.3, 14.3, 14.75, 14.7, 15.15, 13.81, 13.81, 13.8, 12.96, 12.07, 9.97, 9.6, 11.62, 10.28, 10.28, 6.64, -0.0, -0.0, -0.0, 10.73, 11.18, 11.18, -0.0, -0.0, -0.0, -3.11, -2.54, -5.21, -3.25, -3.25, -0.0, -0.0, 10.73, 11.62, 10.73, -9.39, -0.0, 11.2, 14.19, 3.52, -3.18, -0.0, -0.0, -1.29, -1.84, -1.98, -0.0, 2.62, 6.0, 8.05, 10.54, 11.38, 10.9, 9.65, 9.2, 6.2, 2.71, 7.27, 6.64, 1.84, 1.93, 3.82, 6.21, 5.15, 7.27, 9.55, 10.96, 10.73, 8.49, 8.94, 9.54, 6.32, 4.29, 5.15, 7.59, 9.52, 8.05, 7.2, 14.16, 12.79, 7.93, 4.52, 7.93, 8.18, 8.18, 8.18, 10.12, 10.12, 10.12, 10.12, 13.99, 14.42, 16.09, 16.54, 16.09, 16.09, 15.65, 15.65, 15.2, 15.2, 15.2, 15.2, 15.59, 15.59, 15.59, 14.75, 14.3, 13.41, 12.83, 10.38, 10.0, 10.28, 10.28, 6.95, 7.27, 4.2, 7.9, 9.83, 10.73, 11.62, 11.18, -0.0, -0.0, -0.0, -3.8, -3.8, -4.0, -6.95, -0.0, 10.28, 0.0, 0.0, 7.6, -7.2, -2.4, 9.46, 12.87, 7.73, -2.82, -4.8, -3.98, -4.8, -3.98, -3.98, -3.98, -0.0, 4.15, 6.76, 8.85, 11.9, 12.15, 10.45, 8.41, 5.31, 5.46, 7.27, 10.38, 9.67, 0.0, 1.64, 3.07, 2.95, 2.7, 6.21, 8.58, 10.18, 9.75, 9.97, 9.96, 8.3, 6.08, 5.59, 6.55, 7.67, 6.79, 6.79, 14.16, 13.28, 11.9, 7.93, 7.93, 7.93, 10.12, 12.27, 10.43, 10.12, 10.12, 13.99, 13.99, 14.42, 15.27, 16.54, 16.09, 16.54, 16.54, 16.09, 15.65, 15.65, 15.65, 15.65, 16.03, 16.04, 15.65, 15.65, 14.75, 14.23, 13.44, 13.32, 11.21, 10.28, 9.83, 7.6, 6.64, 5.46, 10.0, 10.73, 10.28, 9.6, 10.73, -0.0, -0.0, -0.0, -2.54, -3.6, -3.4, -5.69, 8.05, 8.05, 8.05, 8.05, 7.6, 7.6, 2.54, 6.64, 11.18, 6.2, -0.0, -4.2, -4.0, -6.32, -7.6, -8.48, -7.2, -2.39, 3.25, 7.59, 9.42, 12.77, 13.41, 10.58, 9.75, 3.77, 6.72, 9.62, 11.42, 12.5, 14.3, 8.31, 1.77, 1.58, 1.45, 0.0, 2.69, 3.15, 4.2, 6.95, 8.03, 6.79, 6.4, 6.99, 7.82, 7.76, 6.98, 6.98, 14.16, 14.11, 12.79, 9.8, 10.12, 11.9, 11.9, 12.27, 12.27, 12.27, 13.99, 13.99, 13.99, 14.42, 15.18, 16.09, 15.65, 16.54, 16.54, 16.54, 16.09, 16.09, 16.09, 15.57, 15.14, 15.15, 15.65, 15.65, 15.65, 16.03, 15.27, 14.38, 13.19, 11.87, 8.05, 8.49, 6.32, 10.28, 10.28, 9.2, 9.6, 6.64, 9.83, 5.69, -0.0, -0.0, -3.8, -0.0, -0.0, -0.0, -0.0, -0.0, -0.0, 6.32, 6.32, 8.94, 8.94, 9.83, -0.0, -0.0, 7.27, 4.2, -0.0, -3.8, -6.01, -5.37, -7.2, -5.69, 2.83, 9.45, 13.81, 14.22, 12.14, 10.58, 4.15, 3.65, 7.76, 10.76, 13.24, 13.34, 13.42, 14.03, 14.3, 4.98, 0.0, 0.0, 0.0, 0.0, 2.99, 4.96, 6.95, 6.79, 5.72, 6.91, 8.18, 7.13, 6.64, 6.64, 14.16, 14.11, 12.79, 11.53, 11.53, 11.9, 11.9, 11.9, 12.27, 12.27, 13.99, 13.99, 13.99, 14.42, 14.75, 14.31, 15.2, 16.09, 16.54, 16.09, 15.65, 15.53, 15.2, 14.75, 14.68, 15.14, 15.65, 15.65, 16.09, 16.46, 16.05, 15.2, 14.79, 13.19, 9.55, 6.4, 6.01, 6.95, 8.55, 8.55, 6.64, 0.0, 0.0, 8.49, -0.0, -0.0, -0.0, -0.0, -0.0, -0.0, -0.0, -0.0, -0.0, -0.0, 4.0, 6.32, 6.64, 4.4, 4.6, 7.27, 9.2, 8.8, -0.0, -2.83, -3.8, -1.84, -3.4, -3.6, 2.06, 10.46, 15.49, 15.12, 12.07, 13.57, 7.4, 5.96, 10.33, 12.63, 14.64, 14.62, 13.59, 12.94, 13.65, 0.0, -6.2, -2.06, 0.0, 0.0, 1.14, 2.82, 5.29, 5.69, 5.06, 5.89, 6.95, 6.95, 5.86, 5.86, 14.16, 13.57, 12.87, 12.39, 11.53, 11.53, 11.9, 13.88, 12.27, 12.27, 13.99, 13.99, 13.99, 13.99, 14.31, 16.09, 14.3, 15.65, 15.65, 15.2, 15.2, 15.49, 14.55, 15.65, 14.75, 16.54, 12.52, 16.54, 17.43, 14.75, 15.49, 15.27, 14.79, 14.39, 12.79, 8.38, 6.32, 5.72, 7.27, 9.3, 8.18, 8.4, 6.64, 8.94, 4.2, 4.2, 4.2, 4.0, 4.0, 4.0, 4.2, 4.0, -0.0, -0.0, 2.97, 2.97, 6.64, 8.8, 9.2, 10.28, 10.28, 9.83, -0.0, -4.71, -4.37, -4.14, -4.46, 0.0, 4.2, 9.82, 13.36, 15.01, 16.7, 18.04, 17.94, 16.76, 15.65, 15.2, 15.08, 15.41, 14.19, 14.22, 14.25, 4.1, -8.22, 0.0, 0.0, 1.84, 0.0, 1.28, 2.82, 5.72, 5.63, 5.49, 5.9, 6.95, 6.17, 6.17, 14.16, 13.57, 12.87, 12.39, 12.39, 12.39, 13.88, 13.88, 14.31, 13.99, 13.99, 13.99, 14.31, 14.31, 14.31, 14.3, 14.75, 14.3, 15.65, 15.2, 16.54, 15.43, 14.11, 14.79, 14.94, 16.31, 16.54, 14.75, 15.2, 15.65, 16.09, 16.09, 15.93, 15.69, 14.79, 12.74, 10.09, 9.6, 8.4, 7.85, 8.43, 8.94, 8.94, 8.6, 7.44, 7.27, 6.64, 6.64, 6.64, 6.32, 4.0, -0.0, -0.0, -0.0, 2.06, 4.0, 7.27, 7.44, 9.83, 10.28, 9.83, 9.39, -0.0, -6.64, -5.69, -5.69, -6.01, -0.0, 10.28, 11.62, 12.72, 15.29, 18.48, 19.52, 18.75, 16.42, 11.38, 11.06, 14.08, 15.09, 15.17, 15.65, 15.2, 5.8, -8.94, 0.0, 3.11, 5.46, 1.84, 0.0, 0.93, 4.32, 6.21, 4.99, 4.2, 5.1, 5.29, 5.29, 13.72, 14.11, 12.87, 12.87, 12.39, 13.44, 13.88, 13.88, 14.31, 14.31, 14.31, 14.31, 14.31, 14.31, 14.75, 15.2, 15.2, 13.86, 12.96, 15.2, 16.99, 16.09, 15.78, 14.42, 14.61, 15.18, 15.2, 15.65, 16.09, 16.44, 16.44, 16.54, 16.54, 16.41, 16.05, 14.75, 13.01, 11.28, 10.47, 8.9, 8.94, 9.34, 9.79, 9.6, 8.79, 8.93, 8.4, 8.4, 8.4, 8.0, 6.32, -0.0, -0.0, -0.0, -0.0, 3.8, 5.63, 5.63, 9.2, 6.64, 0.0, 9.39, -8.4, -8.91, -8.06, -7.44, -6.32, -0.0, 4.6, 6.76, 8.61, 12.37, 17.12, 19.26, 17.86, 15.03, 8.29, 9.37, 11.06, 12.79, 14.93, 15.98, 15.65, 13.86, -9.17, -9.2, 9.83, 6.95, 7.27, 3.25, 2.33, 3.6, 5.8, 3.25, 2.7, 3.87, 4.2, 4.2, 13.72, 13.67, 13.15, 12.87, 13.59, 13.59, 13.59, 14.03, 14.31, 13.19, 13.19, 14.31, 14.31, 14.31, 14.31, 15.2, 15.2, 14.3, 13.86, 14.6, 16.09, 16.09, 15.65, 15.49, 16.41, 16.86, 16.54, 15.65, 15.65, 16.09, 16.46, 16.54, 16.54, 16.54, 16.54, 15.99, 14.66, 12.88, 11.11, 10.28, 8.94, 9.39, 9.34, 9.33, 8.24, 7.2, 9.33, 8.8, 8.4, 8.0, 6.01, -0.0, -0.0, -0.0, -0.0, 2.17, 1.84, 2.82, 3.25, 9.39, -7.6, -9.39, -8.91, -7.81, -7.44, -6.64, -5.21, -2.28, -0.0, -0.0, 1.44, 8.2, 14.86, 17.89, 7.95, 5.11, 6.43, 7.4, 8.4, 9.66, 12.4, 14.23, 15.08, 14.3, 13.86, 12.07, 9.39, 5.21, 7.27, 8.85, 6.7, 3.68, 5.4, 3.25, 2.28, 3.15, 3.49, 3.49, 13.72, 13.72, 13.72, 13.67, 13.59, 13.59, 13.59, 14.03, 14.47, 13.19, 13.59, 14.75, 14.31, 14.31, 14.47, 15.2, 15.2, 14.75, 14.3, 14.75, 16.09, 15.65, 14.75, 15.08, 15.97, 16.86, 17.33, 16.99, 16.54, 15.65, 15.65, 16.09, 16.09, 16.09, 16.09, 16.09, 15.65, 13.33, 11.62, 10.73, 9.83, 9.39, 9.39, 8.89, 7.74, 6.79, 9.33, 9.39, 8.49, 5.69, 5.69, 3.4, -0.0, -0.0, -0.0, -0.0, -0.0, 1.62, 4.6, -0.0, -8.06, -8.94, -8.0, -2.83, -4.0, -2.17, -2.28, -0.0, -0.0, -4.0, -5.95, 2.93, 17.87, 16.71, 0.0, -1.47, 2.06, 4.81, 6.05, 6.97, 8.5, 11.2, 12.99, 13.07, 13.19, 12.39, 9.58, 8.03, 8.73, 11.71, 10.01, 7.9, 10.73, 9.83, 0.0, 3.49, 2.83, 2.83, 13.72, 13.72, 13.72, 13.72, 13.67, 13.67, 13.67, 14.03, 14.47, 14.31, 14.75, 14.75, 14.9, 14.47, 14.9, 15.2, 15.2, 14.75, 14.75, 14.75, 15.65, 16.09, 15.2, 14.19, 14.64, 15.99, 16.88, 17.33, 17.43, 16.54, 16.09, 15.2, 15.65, 15.65, 15.65, 15.65, 15.65, 13.86, 12.07, 10.73, 10.28, 10.28, 9.83, 8.87, 7.97, 7.06, 9.83, 9.39, 8.49, 7.2, 7.6, 3.6, 3.6, 2.4, -0.0, -0.0, -1.84, -0.0, 4.4, 6.95, 8.05, -5.69, -7.6, -2.69, -3.15, -1.47, -0.0, -0.0, -0.0, -2.97, -9.83, 13.7, 17.88, 19.05, 16.44, 0.0, 0.0, 2.0, 4.21, 5.02, 6.24, 7.82, 10.12, 11.33, 11.72, 10.99, 9.16, 6.98, 6.95, -0.0, 10.28, 9.83, 9.83, 9.83, 4.2, 3.32, 4.6, 4.6, 13.75, 13.75, 13.72, 13.72, 13.28, 13.23, 13.67, 14.11, 14.03, 14.47, 14.9, 14.9, 14.9, 14.9, 15.2, 15.2, 14.75, 14.75, 14.75, 15.2, 15.65, 16.54, 16.37, 15.53, 14.64, 15.11, 16.44, 16.88, 16.88, 16.99, 16.54, 16.09, 15.65, 15.2, 15.2, 15.2, 15.2, 14.75, 12.52, 10.73, 10.28, 9.83, 9.39, 9.39, 8.49, 7.6, 7.6, 7.6, 8.05, 7.97, 7.94, 9.33, 7.2, 3.4, -0.0, -0.0, -0.0, -2.12, -0.0, 8.48, 9.83, 7.2, 0.0, -4.71, -1.75, -1.75, -0.0, -0.0, -0.0, 0.0, 3.53, 10.73, 16.05, 17.59, 18.82, 19.38, 19.22, 5.09, 4.38, 2.99, 4.44, 6.17, 8.61, 10.61, 10.43, 8.85, 6.2, 4.4, -0.0, -0.0, -0.0, 10.28, 9.2, 8.8, 7.81, 5.36, 4.0, 4.0, 13.75, 13.75, 13.28, 13.28, 13.28, 13.28, 13.67, 14.11, 14.55, 14.47, 14.47, 14.9, 14.9, 15.65, 15.65, 15.2, 14.75, 14.75, 14.75, 15.2, 15.65, 16.54, 16.82, 16.41, 15.97, 15.11, 15.55, 16.44, 16.88, 16.88, 16.99, 16.54, 16.54, 15.65, 15.2, 15.2, 15.2, 15.2, 13.86, 11.18, 10.28, 10.28, 9.83, 9.39, 8.94, 8.05, 8.05, 7.6, 8.05, 8.49, 8.43, 7.52, 8.48, 6.8, 3.4, -0.0, -0.0, -0.0, 7.6, 8.49, 9.83, 10.28, 8.49, -0.0, -0.0, -0.0, -0.0, -0.0, -2.49, 0.0, 3.98, 9.77, 12.93, 16.01, 18.11, 18.45, 18.16, 19.0, 6.54, 2.61, 3.25, 5.25, 7.32, 8.83, 8.23, 7.26, 5.95, -0.0, 1.67, 1.4, 2.28, 10.28, 7.9, 6.95, 6.95, 6.95, 6.95, 6.95, 13.31, 13.31, 13.31, 13.28, 13.28, 13.72, 13.72, 14.11, 14.55, 14.47, 14.47, 14.9, 15.2, 15.65, 15.65, 15.2, 14.75, 14.75, 14.75, 15.2, 15.65, 16.09, 16.37, 16.86, 16.41, 15.97, 15.53, 15.97, 16.41, 16.54, 16.54, 16.09, 16.09, 16.54, 16.54, 16.09, 15.65, 15.65, 15.2, 13.86, 11.57, 10.23, 9.77, 9.32, 8.87, 8.43, 8.43, 8.05, 8.05, 8.05, 8.05, 8.05, 7.08, 7.06, 6.79, 3.0, -0.0, -0.0, 6.71, 7.15, 8.94, 9.39, 10.28, 5.69, -0.0, -0.0, -0.0, -0.0, -0.0, 10.28, 4.8, 8.22, 11.87, 13.41, 13.39, 15.35, 19.67, 18.31, 10.59, 1.0, 2.62, 4.76, 6.09, 6.78, 7.19, 7.54, 11.62, 1.58, 3.15, 3.15, 3.8, 8.4, 11.87, 6.2, 5.95, 7.59, 7.59, 7.59, 13.31, 13.31, 13.31, 13.28, 13.28, 13.72, 13.72, 14.16, 14.55, 14.55, 14.55, 14.99, 15.2, 15.65, 15.65, 15.65, 14.75, 14.75, 15.2, 15.65, 15.65, 16.09, 16.41, 16.41, 16.41, 16.41, 15.97, 15.65, 15.65, 16.09, 16.09, 16.09, 16.09, 16.09, 16.09, 16.09, 16.09, 15.65, 15.65, 14.75, 12.9, 10.68, 9.32, 9.11, 9.11, 9.11, 9.32, 8.49, 8.05, 7.6, 8.05, 8.05, 7.6, 7.6, 7.15, 6.71, -0.0, -7.15, -6.26, -6.71, 7.6, 9.39, 9.64, 6.32, 2.17, -0.0, 2.49, -0.0, 9.83, 0.0, 7.9, 9.3, 10.48, 10.48, 12.9, 14.3, 17.88, 17.68, 14.11, 0.0, 1.07, 4.3, 5.4, 6.4, 4.98, 0.0, -0.0, 1.95, 6.01, 6.01, 7.44, 9.11, 11.18, 11.71, 10.8, 10.04, 9.67, 9.67, 13.31, 13.31, 13.31, 13.31, 13.28, 13.72, 13.72, 14.16, 14.6, 14.55, 14.55, 14.99, 15.2, 15.65, 15.65, 15.65, 15.2, 14.75, 15.2, 15.65, 15.65, 15.65, 15.97, 16.41, 16.41, 16.41, 16.09, 15.65, 15.65, 15.65, 16.09, 16.09, 16.09, 16.09, 16.09, 16.09, 16.09, 16.09, 15.65, 15.65, 13.79, 11.11, 9.32, 9.64, 9.13, 7.76, 9.6, 10.28, 9.32, 7.6, 7.6, 8.05, 7.6, 6.71, 7.15, 6.71, 7.15, -7.15, -6.26, -6.71, 7.15, 8.94, 8.91, 3.8, -0.0, -0.0, 2.1, 5.7, 9.39, 0.0, 10.6, 11.91, 11.03, 9.42, 9.8, 13.23, 15.43, 15.18, 13.72, 3.14, 0.0, 6.64, 11.18, 10.73, 10.8, 3.53, -0.0, -0.0, 8.05, 7.6, 6.64, 10.28, 11.4, 12.07, 12.96, 13.41, 12.96, 12.96, 13.31, 13.31, 13.31, 13.31, 13.28, 13.72, 13.72, 14.16, 14.6, 14.55, 14.55, 14.55, 15.2, 15.65, 15.65, 15.65, 15.65, 15.2, 15.2, 15.2, 15.65, 15.2, 15.65, 15.97, 15.97, 16.37, 16.09, 15.65, 15.65, 15.65, 15.65, 15.65, 15.65, 15.65, 15.65, 15.65, 16.09, 16.09, 15.65, 15.65, 14.75, 12.44, 10.2, 8.38, 6.94, 9.21, 11.62, 12.07, 11.06, 9.83, 7.6, 5.75, 7.08, 6.61, 6.26, 7.15, 7.15, 6.71, -7.15, -6.26, 7.15, 8.94, 8.49, -8.49, -1.75, -1.75, -0.0, 5.95, 9.11, 7.81, 7.59, 11.03, 12.35, 12.63, 11.87, 14.08, 14.42, 13.26, 12.87, 14.03, 6.6, 10.73, 6.32, 7.51, 7.67, 8.73, 7.87, 9.2, 10.28, 10.28, 10.73, 11.62, 12.52, 12.79, 13.31, 13.86, 13.86, 13.86, 13.31, 13.31, 13.31, 13.31, 13.31, 13.72, 13.72, 14.16, 14.6, 14.6, 14.55, 14.55, 15.2, 15.65, 15.65, 15.65, 15.65, 15.2, 15.2, 15.2, 15.2, 15.2, 15.2, 15.65, 16.09, 16.09, 16.09, 15.65, 15.2, 15.2, 15.65, 15.65, 15.2, 15.2, 15.2, 15.2, 15.65, 15.65, 15.65, 15.65, 15.12, 13.33, 11.09, 9.29, 8.05, 9.83, 13.41, 13.41, 12.52, 10.73, 7.6, 4.92, 4.47, 5.29, 4.92, 6.71, 7.15, 7.6, 7.6, 6.71, 7.6, 0.0, -6.01, -8.0, -4.71, -3.6, -2.54, 6.64, 9.83, 9.64, 6.64, 7.27, 12.0, 14.3, 17.15, 16.69, 15.47, 13.1, 12.39, 14.42, 15.69, 16.91, 13.01, 10.38, 9.45, 9.8, 9.2, 11.45, 10.18, 10.73, 11.18, 12.07, 12.96, 13.23, 13.77, 13.77, 13.33, 13.33, 13.31, 13.31, 13.31, 13.31, 13.31, 13.72, 13.72, 14.16, 14.6, 14.6, 14.55, 14.55, 14.55, 15.2, 15.65, 15.65, 15.65, 15.65, 15.65, 15.2, 15.2, 15.2, 15.65, 15.65, 15.65, 16.09, 16.09, 15.2, 16.54, 14.3, 15.2, 15.65, 15.2, 15.2, 14.75, 15.2, 15.2, 15.65, 15.65, 15.65, 15.55, 14.22, 11.53, 9.74, 9.83, 10.58, 11.98, 13.41, 12.42, 9.32, 6.71, 6.26, 5.81, 5.81, 5.36, 5.36, 6.71, 7.15, 7.6, 7.15, 0.0, -3.4, -8.49, -5.69, -3.8, -3.6, -5.37, 0.0, 8.8, 10.14, 8.4, 0.0, 8.53, 14.75, 20.56, 21.58, 14.19, 8.85, 11.5, 12.93, 15.47, 16.91, 16.99, 13.44, 12.42, 11.45, 10.68, 9.74, 11.61, 11.62, 12.07, 12.52, 12.96, 12.96, 13.31, 13.09, 13.15, 13.15, 13.31, 13.31, 13.31, 13.31, 13.31, 13.72, 13.72, 14.16, 14.6, 14.6, 14.6, 14.55, 14.55, 14.55, 15.65, 15.65, 15.65, 15.65, 15.65, 15.2, 15.65, 15.65, 15.65, 15.2, 15.65, 15.65, 15.65, 15.2, 14.3, 16.09, 14.3, 15.2, 15.65, 15.65, 15.2, 15.2, 15.2, 15.2, 15.65, 15.55, 15.55, 14.66, 12.42, 10.18, 10.28, 11.18, 11.62, 12.96, 11.62, 8.49, 8.49, 8.05, 7.6, 7.15, 6.71, 6.26, 5.81, 6.26, 6.71, 6.26, 5.36, -5.37, -8.94, -2.4, -2.54, -2.54, -4.46, 8.49, 6.95, 9.97, 9.83, -10.28, 0.0, 11.29, 20.77, 25.79, 13.03, -10.52, 7.9, 12.22, 14.16, 15.65, 16.54, 16.22, 13.99, 13.47, 12.04, 10.65, 11.76, 11.91, 12.52, 8.85, 11.2, 12.96, 12.96, 12.58, 12.27, 12.27, 12.86, 12.86, 13.31, 13.31, 13.31, 13.72, 13.32, 13.75, 13.75, 14.6, 14.6, 14.6, 14.6, 14.6, 15.2, 15.65, 15.65, 15.2, 15.2, 15.65, 15.65, 15.65, 15.65, 15.2, 15.2, 15.49, 15.65, 15.2, 15.2, 14.75, 14.75, 14.75, 14.75, 15.2, 15.2, 15.2, 15.2, 15.2, 15.53, 15.53, 15.55, 15.11, 13.31, 10.65, 10.18, 11.06, 11.62, 12.52, 12.07, 9.39, 8.94, 8.94, 8.49, 8.05, 7.6, 7.15, 6.71, 6.26, 5.81, 5.36, 7.6, 7.6, -0.0, -0.0, -0.0, -4.22, -6.32, -7.63, -9.39, 9.83, -0.0, -0.0, 9.67, 9.17, 17.5, 24.01, 19.67, 9.48, 11.87, 13.41, 14.7, 16.09, 16.54, 16.76, 16.91, 13.28, 12.29, 10.96, 12.46, 12.08, 11.91, 12.07, 11.45, 11.87, 12.27, 12.44, 12.45, 12.45, 12.86, 12.86, 13.31, 13.31, 13.28, 12.89, 13.32, 13.75, 13.75, 14.6, 14.6, 14.6, 14.6, 14.6, 15.05, 15.65, 15.2, 15.2, 15.2, 15.65, 15.65, 15.65, 15.65, 15.65, 15.2, 14.99, 15.65, 15.2, 15.2, 15.2, 14.75, 14.3, 14.3, 14.3, 14.75, 15.2, 15.2, 15.05, 15.08, 15.53, 15.53, 15.08, 13.44, 11.28, 10.18, 10.62, 11.62, 12.07, 12.07, 10.2, 9.83, 9.39, 8.49, 8.49, 8.05, 7.6, 7.6, 7.15, 6.71, 5.36, 4.47, 7.6, -0.0, -0.0, -0.0, -5.69, -7.21, -8.24, -8.94, -9.39, -0.0, 10.0, 12.39, 12.04, 14.83, 17.81, 19.38, 18.16, 15.38, 15.2, 14.61, 15.53, 16.09, 15.27, 14.7, 12.04, 12.14, 13.25, 12.2, 11.71, 11.4, 11.02, 11.62, 11.71, 11.84, 11.84, 12.07, 12.07, 12.86, 12.86, 13.31, 13.28, 13.28, 12.89, 13.32, 13.32, 14.16, 14.16, 14.6, 14.6, 14.6, 14.6, 14.6, 15.2, 15.2, 15.2, 15.2, 15.65, 15.65, 15.65, 15.65, 15.65, 15.49, 14.99, 15.2, 15.2, 14.75, 14.75, 14.75, 14.75, 14.3, 13.86, 14.3, 14.3, 14.75, 15.05, 15.08, 15.08, 15.08, 15.08, 13.88, 11.61, 9.89, 10.18, 10.73, 11.62, 11.98, 11.09, 9.76, 9.77, 9.39, 8.94, 8.05, 8.05, 8.05, 7.6, 7.15, 5.81, 5.36, 4.66, -0.0, -0.0, 8.05, -8.94, -8.05, -8.06, -8.94, -8.48, -7.27, 4.4, 12.3, 13.41, 14.22, 15.17, 16.89, 18.03, 20.49, 20.95, 17.98, 13.89, 13.41, 12.3, 12.33, 12.6, 12.58, 11.91, 11.44, 11.0, 11.0, 10.96, 11.11, 11.62, 12.07, 11.91, 11.95, 11.95, 12.86, 12.86, 13.31, 13.28, 13.28, 12.89, 13.32, 13.44, 14.19, 14.19, 14.19, 14.64, 14.64, 14.6, 14.6, 15.05, 15.2, 15.2, 15.2, 15.65, 15.65, 15.65, 15.65, 15.49, 14.99, 14.99, 15.2, 15.2, 14.75, 14.75, 14.75, 14.75, 14.3, 13.86, 13.86, 13.86, 14.3, 14.6, 14.6, 15.08, 15.08, 15.05, 13.15, 10.79, 8.6, 9.32, 10.28, 11.06, 11.51, 11.53, 10.65, 10.2, 9.77, 9.33, 8.49, 8.05, 8.05, 8.05, 7.15, 6.26, 5.36, 4.92, 8.05, 7.15, 8.05, 8.94, -8.05, -6.01, -6.32, -8.0, -6.32, -0.0, 8.53, 13.88, 15.2, 14.09, 13.88, 16.36, 21.19, 23.03, 20.02, 15.2, 12.07, 12.07, 12.35, 12.58, 12.75, 10.96, 10.96, 10.96, 10.96, 10.96, 10.96, 11.57, 12.07, 12.07, 12.0, 11.61, 12.86, 12.86, 12.86, 13.31, 13.28, 13.01, 13.44, 13.44, 14.19, 14.19, 14.19, 14.19, 14.19, 14.19, 14.64, 15.08, 15.2, 15.2, 15.2, 15.65, 15.65, 15.65, 15.49, 15.49, 15.43, 14.99, 15.2, 15.2, 14.75, 14.75, 14.3, 14.3, 14.3, 13.86, 13.86, 13.86, 13.86, 14.16, 14.6, 14.6, 14.6, 15.05, 12.45, 9.6, 7.81, 10.22, 11.18, 11.51, 11.61, 11.61, 11.18, 10.84, 10.41, 9.32, 8.43, 8.05, 8.49, 8.49, 7.6, 6.71, 5.36, 4.92, 8.05, 7.15, 7.6, 8.94, 8.49, -5.37, -6.01, -3.8, -6.01, -4.4, 9.67, 13.74, 17.81, 14.73, 13.47, 14.56, 19.08, 20.26, 17.83, 14.42, 13.28, 12.96, 12.96, 12.79, 12.58, 11.35, 11.35, 11.57, 11.57, 11.12, 11.12, 11.57, 12.07, 12.07, 12.02, 12.0, 12.86, 12.86, 12.86, 13.31, 13.01, 13.01, 13.01, 13.44, 14.19, 14.19, 14.19, 14.19, 14.19, 14.19, 14.64, 14.64, 15.2, 15.2, 15.2, 15.2, 15.65, 15.65, 15.49, 15.05, 14.99, 14.55, 14.75, 14.75, 14.75, 14.75, 14.3, 14.3, 14.3, 13.86, 13.86, 13.86, 13.86, 13.86, 14.3, 14.3, 14.75, 14.55, 13.15, 10.41, 9.83, 11.62, 13.41, 12.89, 12.3, 12.3, 12.04, 11.61, 10.84, 10.2, 8.43, 8.05, 8.49, 8.49, 7.6, 6.71, 5.81, 4.92, 5.36, 8.05, 8.05, 8.05, 7.6, -8.05, -5.69, -2.69, -3.8, -8.94, 11.18, 12.96, 15.78, 16.53, 15.65, 14.93, 15.56, 15.12, 11.09, 11.5, 13.32, 12.79, 12.71, 12.27, 12.14, 11.78, 11.4, 11.57, 11.57, 11.18, 11.18, 11.62, 12.07, 12.07, 11.58, 12.02, 12.86, 12.86, 12.86, 12.58, 13.01, 13.01, 13.01, 13.44, 13.75, 14.19, 14.19, 14.19, 14.19, 14.19, 14.64, 14.64, 15.2, 15.2, 15.2, 15.2, 15.2, 15.2, 15.49, 15.49, 14.99, 14.55, 14.55, 14.75, 14.75, 14.75, 14.3, 13.86, 13.86, 13.86, 13.86, 13.86, 13.86, 13.86, 13.86, 13.86, 14.3, 14.75, 13.86, 11.62, 10.41, 12.71, 14.19, 14.16, 13.67, 13.23, 13.28, 12.04, 11.53, 10.65, 8.85, 8.05, 8.49, 8.49, 8.05, 7.15, 6.26, 4.92, 7.6, 7.6, 8.05, 8.05, 7.6, -8.49, -5.37, -6.01, -3.8, -8.94, 4.6, 10.84, 11.98, 15.9, 19.08, 19.2, 14.66, 10.0, 2.82, 10.04, 11.56, 12.27, 11.95, 11.62, 11.62, 11.57, 11.58, 11.18, 11.18, 11.18, 11.18, 11.58, 11.58, 11.57, 11.57, 11.57, 12.86, 12.86, 12.58, 12.58, 12.58, 13.01, 13.01, 13.44, 13.75, 13.75, 13.75, 14.19, 14.19, 14.19, 14.19, 14.64, 14.75, 15.2, 14.75, 15.2, 15.2, 15.2, 15.05, 15.05, 14.99, 14.55, 14.47, 14.75, 14.75, 14.75, 14.3, 13.86, 13.86, 13.86, 13.41, 13.86, 13.86, 13.86, 13.86, 13.86, 14.3, 14.3, 13.86, 12.07, 11.4, 12.04, 14.19, 13.86, 12.96, 12.96, 12.86, 11.98, 11.09, 9.76, 8.49, 8.05, 8.49, 8.49, 7.94, 7.5, 6.58, 5.7, 4.77, 8.05, 8.05, 8.05, 8.49, -0.0, -3.2, -5.69, -7.6, -6.01, 0.0, 6.64, 10.84, 12.96, 18.26, 22.42, 18.37, 10.8, 8.93, 10.32, 11.71, 12.94, 12.96, 12.44, 11.53, 11.13, 11.14, 11.15, 11.06, 11.06, 11.05, 11.05, 11.46, 11.44, 11.44, 11.44, 12.58, 12.58, 12.58, 12.58, 12.58, 13.01, 13.01, 13.31, 13.75, 13.75, 13.75, 13.75, 14.19, 14.19, 14.19, 14.64, 14.75, 14.75, 14.75, 15.2, 15.2, 15.2, 15.2, 15.05, 14.55, 14.11, 14.47, 14.75, 14.75, 14.75, 14.3, 13.86, 13.86, 13.41, 13.41, 13.41, 13.86, 13.86, 13.86, 13.86, 14.3, 14.3, 13.86, 12.52, 11.91, 12.35, 13.28, 12.96, 12.07, 11.62, 11.09, 11.09, 10.2, 8.87, 8.41, 7.97, 7.97, 7.94, 7.94, 7.5, 7.01, 6.14, 4.8, 5.37, 7.6, 8.05, 8.49, -0.0, -2.26, -5.69, -8.05, -6.01, 0.0, 5.9, 8.38, 9.77, 13.38, 18.31, 19.27, 16.12, 13.76, 14.39, 15.09, 14.29, 13.74, 12.6, 11.62, 11.76, 12.04, 11.66, 11.66, 11.23, 11.18, 11.54, 11.45, 11.28, 11.28, 11.28, 12.14, 12.14, 12.58, 12.58, 12.58, 12.58, 13.31, 13.31, 13.31, 13.75, 13.75, 13.75, 14.19, 14.19, 14.19, 14.75, 14.75, 14.75, 14.75, 14.75, 15.2, 15.2, 15.2, 15.05, 14.99, 14.55, 14.47, 14.75, 14.75, 14.75, 14.3, 14.3, 13.86, 13.86, 13.41, 13.41, 13.41, 13.86, 13.86, 13.86, 14.3, 14.3, 13.86, 12.96, 11.91, 11.91, 12.39, 12.39, 11.53, 10.65, 9.77, 9.33, 8.43, 8.43, 8.41, 7.97, 7.52, 7.5, 7.5, 7.5, 6.64, 6.23, 5.4, 4.46, 5.69, 8.05, 8.49, -0.0, -3.4, -6.8, -8.49, -5.69, 0.0, 5.9, 8.82, 9.96, 11.51, 13.2, 14.37, 14.32, 15.58, 17.87, 18.94, 17.57, 13.63, 9.84, 10.23, 10.62, 11.41, 11.5, 12.38, 10.15, 10.4, 10.8, 10.73, 10.73, 10.73, 10.73, 12.14, 12.14, 12.14, 12.58, 12.58, 12.58, 13.31, 13.31, 13.31, 13.75, 13.75, 13.75, 14.19, 14.19, 14.19, 14.75, 14.75, 14.75, 14.75, 14.75, 14.75, 14.75, 15.2, 15.05, 14.55, 14.55, 14.47, 14.75, 14.75, 14.75, 14.3, 14.3, 13.86, 13.86, 13.41, 13.41, 13.41, 13.86, 13.86, 13.86, 13.86, 14.3, 13.86, 13.23, 12.35, 11.91, 12.35, 12.04, 11.71, 10.84, 9.97, 8.87, 7.98, 7.98, 7.97, 7.97, 7.97, 7.5, 7.06, 6.79, 6.36, 6.23, 4.98, 4.29, 4.46, 8.49, 8.49, 7.6, -5.37, -6.8, -8.05, -6.01, 0.0, 4.2, 8.8, 9.2, 6.71, 9.5, 10.12, 8.2, 10.86, 18.8, 21.99, 19.09, 16.33, 8.94, 6.67, 8.72, 9.59, 10.99, 10.8, 9.2, 9.16, 9.52, 9.81, 9.81, 9.81, 9.81, 12.14, 12.14, 12.14, 12.58, 12.58, 12.86, 12.86, 13.31, 13.31, 13.75, 13.75, 13.75, 13.75, 14.19, 14.3, 14.3, 14.3, 14.3, 14.3, 14.3, 14.75, 14.75, 14.75, 15.05, 14.99, 14.47, 14.3, 14.75, 14.75, 14.75, 14.75, 14.3, 14.3, 13.86, 13.41, 13.41, 13.41, 13.41, 13.86, 13.86, 13.86, 13.86, 13.67, 13.15, 12.71, 11.45, 11.87, 12.04, 12.14, 11.28, 10.41, 9.11, 8.67, 7.97, 7.97, 7.97, 7.52, 7.5, 6.79, 6.36, 5.94, 5.6, 4.98, 4.65, 3.79, 8.49, 8.05, 8.05, -8.05, -8.05, -7.6, -8.06, -8.49, -9.39, -0.0, 3.11, 3.98, 5.77, 6.08, 4.43, 8.18, 15.86, 21.42, 21.1, 17.51, 17.82, 8.43, 6.79, 8.21, 9.08, 9.3, 8.94, 7.9, 8.07, 8.02, 8.38, 8.38, 8.38, 12.14, 12.14, 12.14, 12.14, 12.86, 12.86, 12.86, 13.31, 13.31, 13.31, 13.75, 13.75, 13.75, 14.19, 14.3, 14.3, 14.3, 14.3, 14.3, 14.3, 14.75, 14.75, 15.2, 15.2, 15.2, 14.75, 14.3, 13.86, 14.3, 14.3, 14.75, 14.75, 14.3, 13.86, 13.41, 13.41, 13.41, 13.41, 13.41, 13.41, 13.41, 13.59, 13.59, 13.15, 12.3, 11.87, 12.3, 11.5, 11.72, 11.28, 10.41, 9.97, 9.03, 8.6, 7.74, 7.74, 7.31, 7.31, 6.79, 6.36, 5.6, 5.6, 5.37, 4.11, 3.79, 5.69, 8.05, 8.05, -8.05, -8.05, -8.94, -8.49, -8.94, -6.64, -0.0, 2.39, 2.02, 2.95, 2.42, 3.34, 7.19, 12.37, 16.48, 19.59, 21.15, 18.86, 17.35, 5.81, 7.85, 8.53, 8.22, 7.9, 7.59, 7.27, 7.59, 8.15, 8.15, 8.15, 12.14, 12.14, 12.14, 12.14, 12.42, 12.86, 12.86, 13.31, 13.31, 13.31, 13.75, 13.75, 13.75, 14.3, 14.3, 14.3, 14.3, 14.3, 14.3, 14.3, 14.3, 14.75, 14.75, 14.75, 14.75, 14.75, 14.3, 13.86, 13.86, 13.86, 13.86, 14.3, 14.3, 13.86, 13.41, 13.41, 13.41, 13.41, 13.41, 13.41, 13.15, 13.15, 13.59, 12.45, 12.3, 11.2, 11.92, 11.92, 11.09, 11.28, 10.32, 9.89, 9.46, 9.03, 7.74, 7.74, 7.74, 7.74, 7.31, 6.0, 6.0, 6.0, 4.89, 4.11, 3.22, 3.2, 0.0, 8.05, -7.2, -7.2, -8.0, -9.39, -9.39, -8.4, -0.0, -0.0, -0.0, -0.0, -0.0, 3.07, 5.99, 8.61, 11.17, 16.87, 20.7, 21.54, 5.48, 0.0, 5.0, 9.3, 8.73, 7.59, 7.27, 8.55, 8.55, 5.7, 5.7, 5.7, 12.14, 11.71, 12.14, 12.42, 12.42, 12.86, 12.86, 12.86, 13.31, 13.31, 13.75, 13.75, 14.3, 14.3, 13.86, 13.86, 13.86, 13.86, 13.86, 14.3, 14.3, 14.75, 14.75, 14.75, 14.75, 14.75, 14.3, 14.3, 13.86, 13.41, 13.41, 13.41, 13.86, 13.86, 13.41, 12.96, 12.96, 12.96, 12.96, 12.71, 13.15, 13.15, 12.45, 12.45, 11.6, 11.6, 11.92, 11.5, 11.61, 11.18, 10.32, 9.89, 9.46, 8.6, 8.06, 8.06, 7.2, 7.4, 6.99, 6.16, 6.16, 5.58, 5.21, 4.54, 3.22, 2.12, 0.0, -5.37, -7.6, -8.05, -6.01, -6.32, -6.64, -9.39, -8.4, -2.83, -0.0, -0.0, -0.0, 1.76, 5.2, 6.7, 9.42, 13.92, 20.33, 19.64, 0.0, -7.27, -1.93, 8.43, 10.18, 8.82, 7.59, 7.59, 10.28, -9.83, -9.83, -9.83, 11.71, 11.71, 11.71, 12.42, 12.42, 12.42, 12.86, 12.86, 13.31, 13.31, 13.75, 13.86, 14.3, 14.3, 13.86, 13.41, 13.41, 13.86, 14.3, 14.3, 14.3, 14.3, 14.75, 14.75, 14.75, 14.75, 14.3, 14.3, 13.86, 13.86, 13.41, 13.41, 13.41, 13.41, 12.96, 12.96, 12.96, 12.96, 12.58, 12.71, 12.71, 12.04, 12.45, 11.99, 11.6, 11.6, 11.5, 11.5, 11.61, 11.18, 10.32, 9.46, 9.33, 8.91, 8.0, 7.2, 7.2, 6.8, 6.99, 6.21, 5.82, 5.58, 5.15, 4.43, 3.49, 1.55, 0.0, -2.12, -4.74, -6.4, -7.6, 8.49, -0.0, 9.39, -9.39, -8.4, -2.83, -0.0, -0.0, 2.02, 4.15, 5.75, 9.42, 13.55, 22.8, 20.98, -12.01, -11.62, -9.39, 8.94, 9.39, 9.33, 5.46, 0.0, 9.83, -9.39, -9.39, -9.39, 11.71, 11.71, 11.98, 11.98, 12.42, 12.42, 12.42, 12.86, 12.86, 13.31, 13.86, 13.86, 14.3, 13.86, 13.41, 13.41, 13.86, 13.86, 14.3, 14.3, 14.3, 14.3, 14.75, 14.75, 14.75, 14.3, 14.3, 13.86, 13.86, 13.86, 13.41, 13.41, 13.41, 13.41, 12.96, 12.96, 12.96, 12.14, 12.14, 11.6, 12.04, 12.04, 11.12, 11.6, 11.6, 11.6, 11.2, 11.87, 11.61, 11.18, 10.18, 9.75, 9.75, 8.4, 8.0, 7.6, 7.2, 6.8, 6.21, 6.21, 5.82, 5.46, 5.15, 4.74, 3.49, 1.55, 0.0, 0.0, -1.63, -3.97, -6.32, -3.6, 0.0, 8.94, -9.83, -6.64, -4.0, -0.0, -0.0, 3.11, 2.6, 6.44, 10.4, 19.67, 23.23, 21.01, -0.0, -9.8, -5.2, 10.28, 8.94, 8.49, 4.0, 0.0, -4.0, -8.0, -8.0, -8.0, 11.71, 11.71, 11.98, 11.98, 12.42, 12.42, 12.42, 12.86, 12.86, 13.41, 13.86, 13.86, 13.86, 13.86, 13.41, 13.41, 13.86, 13.86, 13.86, 14.3, 14.3, 14.3, 14.75, 14.75, 14.75, 14.3, 14.3, 13.86, 13.86, 13.41, 13.41, 13.41, 13.41, 13.41, 12.96, 12.52, 12.14, 12.14, 11.2, 11.2, 12.04, 11.12, 11.12, 10.79, 11.6, 11.6, 11.87, 11.87, 11.45, 11.03, 10.18, 9.75, 8.8, 8.4, 8.0, 7.6, 7.07, 6.7, 6.6, 6.21, 5.46, 5.15, 5.15, 4.74, 3.76, 1.7, 0.0, 0.0, -1.73, -2.26, -4.22, -4.46, -2.54, 0.0, 0.0, -8.94, -6.32, -0.0, 8.4, 6.95, 4.4, 7.27, 13.7, 19.15, 23.19, 20.08, -3.33, -7.13, -3.96, 11.62, 10.73, 6.32, 8.05, -3.8, -5.69, -7.63, -7.63, -7.63, 11.71, 11.71, 11.98, 11.98, 11.98, 12.42, 12.42, 12.86, 12.96, 13.41, 13.41, 13.41, 13.41, 13.41, 12.96, 13.41, 13.86, 13.86, 13.86, 14.3, 14.3, 14.3, 14.3, 14.3, 14.3, 14.3, 13.86, 13.86, 13.86, 13.41, 12.96, 13.41, 13.41, 13.41, 12.96, 11.87, 12.14, 11.2, 10.8, 10.73, 10.73, 10.73, 10.79, 10.79, 11.6, 11.87, 11.87, 11.87, 11.87, 11.03, 10.18, 9.2, 8.8, 8.4, 8.0, 7.07, 7.07, 6.7, 5.84, 6.18, 5.82, 5.49, 5.15, 4.29, 3.45, 1.98, 0.0, 0.0, 0.0, 0.0, -3.4, -5.69, -4.71, -4.71, -6.01, -7.6, -6.01, 0.0, 6.64, 9.39, 9.39, 9.83, 12.45, 16.78, 21.07, 19.17, -11.38, -8.85, -7.9, -10.41, -11.18, -8.55, -6.32, -8.05, -8.06, -7.37, -7.37, -7.37, 11.28, 11.28, 11.98, 11.98, 11.98, 11.98, 12.42, 12.96, 12.52, 12.96, 12.96, 12.96, 12.96, 12.96, 12.96, 13.41, 13.86, 13.86, 13.86, 13.86, 14.3, 14.3, 14.3, 14.3, 14.3, 14.3, 13.86, 13.86, 13.41, 13.41, 12.96, 13.41, 13.41, 13.41, 12.3, 11.87, 11.2, 11.2, 9.66, 10.35, 10.73, 9.77, 10.41, 11.2, 11.2, 11.87, 11.87, 11.87, 11.87, 11.03, 9.6, 9.2, 8.8, 8.4, 8.0, 7.07, 7.07, 6.18, 5.84, 6.18, 5.84, 5.06, 4.74, 4.58, 3.68, 1.23, 0.0, 0.0, 0.0, 0.0, -3.6, -5.69, -6.01, -7.07, -8.48, -8.0, -6.32, 0.0, 0.0, 0.0, 0.0, 9.2, 11.02, 13.86, 18.62, 18.96, 7.4, -10.55, -7.33, -8.91, -10.28, -10.08, -7.15, -8.06, -8.94, -8.94, -8.94, -8.94, 11.28, 11.28, 11.53, 11.98, 11.53, 11.98, 11.98, 12.52, 12.52, 12.52, 12.96, 12.96, 12.96, 12.96, 12.96, 13.41, 13.86, 13.86, 13.86, 13.86, 13.86, 14.3, 14.3, 14.3, 14.3, 13.86, 13.86, 13.41, 13.41, 13.41, 12.96, 13.41, 13.41, 12.3, 12.3, 10.41, 11.2, 9.66, 10.35, 9.42, 9.77, 10.41, 11.2, 11.2, 11.87, 11.87, 11.87, 11.87, 11.87, 10.4, 9.6, 9.2, 8.8, 8.4, 7.81, 7.44, 7.07, 6.52, 6.18, 5.84, 5.37, 5.06, 4.58, 4.58, 3.97, 2.49, 0.0, 0.0, 0.0, 0.0, -2.54, -4.46, -5.37, -7.2, -7.63, -7.6, -4.0, -2.17, 0.0, 0.0, 2.28, 5.9, 8.38, 11.76, 16.07, 19.22, 16.99, -13.28, -7.81, -6.52, -7.97, -9.29, -8.72, -7.44, -8.48, -8.94, -8.94, -8.94, 11.53, 11.53, 11.53, 11.53, 11.53, 11.98, 12.07, 12.07, 12.07, 12.52, 12.52, 12.96, 12.96, 12.96, 12.96, 13.41, 13.41, 13.86, 13.86, 13.86, 13.86, 14.3, 14.3, 14.3, 13.86, 13.86, 13.86, 13.41, 13.41, 12.96, 12.96, 13.41, 12.72, 12.3, 10.41, 11.2, 9.66, 9.66, 9.42, 9.42, 9.77, 10.73, 10.73, 11.21, 11.21, 11.45, 11.87, 11.87, 11.2, 10.4, 9.6, 8.82, 8.8, 8.18, 7.81, 7.44, 7.07, 6.18, 6.18, 5.84, 5.06, 5.06, 4.58, 4.87, 4.22, 3.2, 1.03, 0.0, 0.0, 0.0, -1.95, -3.4, -5.06, -5.37, -5.69, -4.71, -2.83, -2.17, -1.84, 0.0, 0.0, 3.65, 6.7, 10.35, 14.15, 18.16, 17.72, 10.75, -11.62, -6.52, -8.06, -8.85, -8.82, -8.0, -8.0, -8.67, -8.67, -8.67, 11.09, 11.09, 11.09, 11.53, 11.53, 11.53, 11.62, 12.07, 12.07, 12.52, 12.52, 12.96, 12.96, 12.96, 12.96, 13.41, 13.86, 13.41, 13.86, 13.86, 13.86, 14.3, 14.3, 14.3, 13.86, 13.86, 13.41, 13.41, 13.41, 12.96, 12.96, 12.72, 12.72, 10.79, 10.41, 10.01, 9.66, 9.42, 9.42, 9.42, 9.42, 10.35, 11.21, 11.21, 11.21, 11.21, 11.45, 10.8, 10.8, 10.0, 9.2, 8.82, 8.03, 8.18, 7.81, 7.81, 6.87, 6.18, 6.18, 5.84, 5.37, 5.37, 4.87, 4.87, 4.22, 3.2, 2.12, 1.1, 1.18, 0.0, 0.0, -1.67, -3.4, -4.22, -4.46, -3.8, -4.0, -2.17, -4.2, -1.84, 0.0, 1.62, 5.95, 9.53, 12.96, 16.91, 17.68, 15.39, 14.3, -9.6, -7.89, -8.48, -8.48, -8.72, -8.3, -8.67, -8.67, -8.67, 11.09, 11.09, 11.09, 11.09, 11.09, 11.62, 11.62, 12.07, 12.07, 12.52, 12.52, 12.52, 12.96, 12.96, 12.96, 13.41, 13.41, 13.41, 13.41, 13.86, 13.86, 13.86, 14.3, 14.3, 13.86, 13.41, 13.41, 13.41, 12.96, 12.96, 12.3, 12.72, 12.72, 10.79, 11.2, 10.01, 9.66, 9.42, 9.42, 9.42, 10.35, 10.35, 11.21, 11.21, 10.79, 10.79, 9.97, 10.35, 9.97, 9.2, 9.2, 8.03, 8.03, 8.03, 8.18, 7.81, 6.87, 6.52, 6.52, 5.69, 5.37, 4.87, 4.87, 5.15, 4.46, 3.77, 2.82, 1.96, 1.96, 2.09, 1.07, 0.0, -2.54, -6.01, -6.4, -4.46, -5.36, -5.63, -4.2, -3.65, 0.0, 3.25, 6.24, 9.17, 12.87, 16.0, 16.8, 15.62, 14.25, 12.96, -9.39, -8.0, -8.05, -7.67, -8.3, -8.24, -8.24, -8.24, 11.09, 11.09, 11.09, 11.09, 11.09, 11.62, 11.62, 12.07, 12.07, 12.52, 12.52, 12.52, 12.96, 12.96, 12.96, 13.41, 13.41, 13.41, 13.41, 13.86, 13.86, 13.86, 13.86, 13.86, 13.86, 13.41, 13.41, 13.41, 12.96, 12.58, 12.3, 12.72, 10.79, 10.41, 10.01, 10.01, 9.42, 9.42, 9.08, 9.97, 10.35, 11.21, 10.79, 10.79, 9.58, 9.58, 9.58, 9.58, 9.58, 9.2, 8.03, 8.03, 8.03, 8.03, 8.18, 7.56, 7.21, 6.87, 6.52, 5.69, 5.69, 5.15, 5.15, 5.15, 3.99, 3.77, 3.55, 2.67, 1.84, 1.84, 2.09, 1.01, 0.0, 8.94, -7.15, -5.37, -6.01, -6.64, -5.63, -1.93, 0.0, 3.39, 5.54, 8.75, 11.77, 14.79, 15.87, 15.18, 14.3, 13.41, 12.07, 8.94, -0.0, -2.69, -6.01, -7.6, -7.6, -7.6, 11.09, 11.09, 11.09, 11.09, 11.09, 11.62, 11.62, 12.07, 12.07, 12.52, 12.52, 12.52, 12.96, 12.96, 12.96, 13.41, 13.41, 13.41, 13.41, 13.86, 13.86, 13.86, 13.86, 13.86, 13.86, 13.41, 13.41, 13.41, 12.96, 12.58, 12.3, 12.72, 10.79, 10.41, 10.01, 10.01, 9.42, 9.42, 9.08, 9.97, 10.35, 11.21, 10.79, 10.79, 9.58, 9.58, 9.58, 9.58, 9.58, 9.2, 8.03, 8.03, 8.03, 8.03, 8.18, 7.56, 7.21, 6.87, 6.52, 5.69, 5.69, 5.15, 5.15, 5.15, 3.99, 3.77, 3.55, 2.67, 1.84, 1.84, 2.09, 1.01, 0.0, 8.94, -7.15, -5.37, -6.32, -6.64, -5.63, -1.93, 0.0, 3.39, 5.95, 8.75, 10.8, 12.96, 14.97, 15.18, 14.3, 13.41, 12.96, 11.18, 8.94, 8.67, 8.0, 8.0, 8.0, 8.0]}, {"header": {"dx": 0.06612293990616946, "dy": 0.0552356325346848, "nx": 98, "ny": 59, "la1": 35.046912555036876, "la2": 31.78801023549047, "lo1": -121.43107172385933, "lo2": -114.95102361305473, "refTime": "2026041011", "parameterCategory": 1, "parameterNumber": 3}, "data": [4.38, 4.38, 7.13, 11.44, 14.11, 13.86, 13.86, 13.75, 12.42, 13.19, 12.87, 12.07, 12.07, 10.73, 10.28, 9.6, 7.9, 7.27, 10.73, 9.39, 9.39, 9.11, 7.89, 8.0, 7.81, 8.91, 8.91, 9.39, 9.39, 9.83, 9.83, -0.0, -0.0, -0.0, -0.0, -0.0, 0.0, 0.0, 5.37, 8.05, 8.49, 0.0, 0.0, -7.19, -5.31, -6.17, -6.47, -7.14, -5.65, 0.0, 8.59, 9.16, 8.53, 8.02, 8.32, 8.61, 8.38, 7.2, 6.64, 6.64, 5.73, 5.73, 6.0, 6.51, 7.79, 7.79, 7.69, 6.42, 5.62, 5.28, 4.21, 3.55, 2.93, 3.18, 2.62, 3.82, 3.68, -0.0, -0.0, -0.0, -3.25, -6.95, -6.95, -7.15, -7.07, -8.05, -7.63, -6.7, -4.83, -4.56, -5.41, -6.45, -7.12, -7.38, -7.38, -6.56, -5.57, -4.8, 2.28, 2.72, 8.31, 11.09, 14.11, 14.3, 14.3, 14.16, 13.56, 13.19, 13.15, 13.41, 11.62, 10.73, 11.62, 11.18, 7.27, 8.22, 9.6, 9.11, 10.41, 10.28, 9.11, 8.3, 7.28, 8.48, 9.39, 6.64, 8.4, 8.94, 8.49, 8.94, 8.05, 4.43, -0.0, 0.0, 0.0, 0.0, 6.01, 8.94, 0.0, -11.62, -9.17, -10.12, -10.76, -10.17, -10.91, -6.44, 0.0, 8.66, 8.22, 7.36, 7.14, 7.26, 7.82, 8.23, 7.95, 7.44, 6.64, 5.73, 5.73, 5.55, 5.8, 7.54, 8.3, 8.73, 7.44, 6.42, 5.62, 5.11, 4.1, 3.55, 2.16, 1.2, 1.33, 1.33, 1.91, -0.0, -0.0, -0.0, -3.25, -6.95, -6.95, -7.15, -7.07, -8.05, -7.63, -6.7, -4.83, -4.56, -5.41, -6.45, -7.12, -7.38, -7.38, -6.56, -5.57, -4.8, 0.0, 2.72, 8.31, 12.39, 14.03, 14.75, 14.75, 14.55, 14.42, 12.65, 11.62, 10.28, 11.62, 11.62, 10.73, 9.6, 5.0, 8.22, 7.59, 10.4, 8.18, 10.6, 11.18, 9.97, 8.05, 7.28, 8.48, -0.0, 4.0, 7.44, 8.33, 8.49, 8.82, 7.6, 3.97, 0.0, 0.0, 0.0, 0.0, 0.0, -11.62, -12.39, -12.57, -13.58, -14.93, -12.8, -8.8, 0.0, 8.94, 7.59, 6.98, 6.97, 6.94, 7.19, 7.19, 7.44, 6.9, 6.64, 6.2, 5.33, 5.55, 4.98, 6.87, 8.3, 9.96, 9.84, 8.23, 7.2, 6.15, 5.8, 4.98, 3.56, 1.04, 0.0, 0.0, 0.0, 0.0, 0.0, -2.72, -2.28, -4.6, -6.95, -7.51, -7.15, -6.79, -6.7, -7.6, -6.7, -5.69, -5.76, -7.01, -7.79, -8.66, -8.18, -6.21, -3.68, -2.6, -1.39, 0.0, 3.36, 7.93, 12.39, 14.3, 14.75, 15.2, 15.2, 14.42, 13.28, 11.2, 10.73, 12.07, 11.18, 11.18, 7.9, 8.22, 8.53, 8.22, 10.4, 10.18, 10.18, 11.62, 11.62, 9.96, 8.43, 7.28, 7.44, 8.94, 6.01, 7.6, 8.77, 8.94, 7.6, 6.01, 4.2, 1.93, 0.0, -3.68, -9.48, -11.38, -13.28, -15.01, -12.96, -10.89, -6.14, 2.54, 6.98, 6.3, 6.76, 6.63, 7.11, 6.0, 7.54, 7.54, 7.78, 6.9, 5.55, 5.33, 4.38, 4.58, 5.27, 8.01, 10.79, 10.55, 10.37, 9.17, 8.72, 7.79, 7.34, 5.73, 4.13, 2.11, -1.2, -3.53, -3.19, -2.52, -2.63, -9.39, -5.8, -6.14, -6.95, -7.51, -6.32, -4.37, -5.69, -8.05, -6.9, -6.64, -7.9, -8.46, -8.56, -8.21, -5.4, 2.6, 4.2, 0.0, -0.94, 0.0, 0.0, 10.12, 13.88, 14.3, 14.75, 15.2, 15.2, 14.9, 13.28, 11.2, 10.28, 11.62, 11.18, 10.73, 11.62, 11.62, 12.07, 12.07, 8.53, 12.52, 10.28, 10.73, 12.07, 10.96, 10.0, 8.43, 6.64, 6.64, 8.49, 7.44, 8.18, 11.28, 10.4, 6.71, 4.15, 2.28, 0.0, -4.95, -11.0, -8.6, -3.42, 0.0, 0.0, 0.0, 4.48, 5.75, 5.95, 5.99, 6.43, 6.43, 6.43, 6.43, 6.43, 6.87, 7.44, 6.0, 5.55, 5.33, 5.16, 3.73, 8.3, 10.87, 11.2, 10.94, 9.88, 9.69, 9.64, 9.48, 8.84, 7.45, 6.35, 5.21, 0.0, -5.75, -8.03, -6.7, -6.97, -12.27, -8.31, -6.4, -7.33, -7.33, -5.59, -4.46, -7.2, -7.28, -6.64, -8.76, -9.6, -8.56, -7.93, -3.82, 10.28, 9.39, 3.49, 0.0, -1.6, 0.0, 0.0, 12.79, 14.3, 14.3, 14.75, 15.2, 15.2, 15.2, 13.88, 11.45, 9.83, 11.18, 10.73, 11.18, 11.18, 11.62, 0.0, 0.0, -0.0, -0.0, 12.07, 12.96, 12.3, 11.71, 10.8, 9.66, 8.94, 7.59, 7.59, 8.4, 9.83, 10.28, 8.53, 2.63, 0.0, 0.0, 1.53, 0.0, -16.39, 0.0, 12.79, 8.85, 6.94, 6.94, 7.73, 7.44, 6.94, 5.6, 4.48, 4.48, 6.44, 5.6, 7.19, 6.0, 4.98, 4.81, 4.98, 4.24, 3.94, 3.96, 10.35, 11.3, 11.21, 10.73, 10.62, 9.36, 9.36, 8.97, 8.72, 7.23, 7.0, 7.08, 5.81, 0.0, -11.62, -9.21, -9.39, -8.91, -8.01, -6.32, -7.76, -7.07, -5.69, -6.55, -8.49, -9.27, -10.12, -10.34, -9.7, -8.85, -7.82, 11.18, 8.38, 9.11, 0.0, -2.28, -4.13, 0.0, 6.2, 13.86, 14.3, 14.75, 15.2, 15.2, 15.2, 15.2, 13.01, 10.6, 8.94, 10.28, 0.0, 0.0, 0.0, 0.0, 0.0, -12.52, -12.52, -12.96, -10.12, 0.0, 0.0, 10.43, 6.4, 6.8, 3.47, 6.0, 7.9, 8.58, 8.72, 9.13, 7.27, 2.28, 0.0, 0.0, 1.96, 2.63, 0.0, 4.52, 11.6, 12.72, 9.48, 9.8, 9.5, 9.42, 9.76, 8.85, 7.51, 5.6, 5.4, 4.81, 4.1, 3.14, 2.81, 2.81, 1.38, 1.17, 2.06, 5.4, 10.79, 11.28, 11.03, 10.94, 10.62, 9.69, 8.15, 7.19, 5.81, 5.73, 5.45, 5.02, 4.91, 2.52, -13.02, -12.58, -8.48, -9.39, -9.83, -8.0, -7.89, -8.91, -9.75, -11.13, -10.8, -12.13, -11.82, -10.04, -9.48, -10.04, 0.0, 7.94, 8.33, 6.01, -1.4, -3.78, -5.0, 0.0, 6.2, 14.3, 14.75, 15.2, 15.2, 15.2, 15.2, 14.75, 12.96, 10.18, 9.39, 7.27, 7.9, 0.0, 0.0, 0.0, 0.0, -12.96, 0.0, 0.0, 0.0, -13.41, -15.65, -15.65, -10.43, -6.8, -11.06, 0.0, 11.99, 8.53, 8.53, 8.85, 5.6, 1.84, 0.0, -2.13, 0.0, 0.0, 3.68, -0.0, -0.0, 11.38, 17.43, 15.27, 11.99, 10.94, 10.12, 9.69, 10.3, 6.97, 5.4, 2.45, 2.06, 0.0, 0.0, 0.0, 0.0, 0.0, 1.64, 6.71, 10.52, 10.38, 10.4, 10.24, 10.09, 8.23, 5.4, 1.5, 1.17, 2.81, 2.55, 1.58, 1.57, 1.94, -3.69, -9.8, -12.07, -9.3, -10.12, -11.61, -9.15, -9.72, -11.18, -11.96, -12.22, -11.94, -10.86, -9.85, -9.36, -8.55, 6.79, 7.45, 8.05, 0.0, -2.83, -4.6, -4.6, 0.0, 10.12, 14.3, 14.75, 15.2, 15.2, 15.2, 15.2, 14.3, 12.52, 10.73, 10.28, 12.96, 9.17, 8.85, 0.0, 0.0, 0.0, 0.0, 0.0, 0.0, 9.48, 0.0, -14.3, -12.52, -10.4, -9.83, -13.41, 0.0, 0.0, 0.0, 0.0, 0.0, 0.0, 0.0, 0.0, -2.6, -4.8, 0.0, 0.0, -0.0, -0.0, -0.0, -0.0, 12.07, 11.62, 13.01, 11.16, 10.47, 10.02, 9.8, 7.73, 5.4, 1.98, 0.0, -1.64, -3.19, -4.4, -2.19, 2.82, 10.38, 10.32, 10.18, 10.09, 10.91, 9.8, 7.69, 4.65, 0.0, -2.52, -1.08, 0.0, 0.0, 0.0, 0.0, -2.63, -12.07, -11.28, -8.66, -9.92, -12.22, -9.83, -9.39, -10.26, -10.8, -11.06, -10.73, -10.28, -8.93, -8.55, 0.0, 6.71, 7.15, 0.0, -2.99, -4.0, -4.8, -4.92, 0.0, 11.9, 14.75, 14.75, 15.2, 15.2, 15.2, 15.2, 14.3, 12.52, 11.62, 12.07, 10.8, 9.8, 6.2, 0.0, -10.12, -14.75, -14.3, -12.96, -12.52, 0.0, 0.0, -10.12, -13.86, -11.18, -8.94, -10.73, -14.75, -6.4, -7.93, -7.2, 0.0, 0.0, 0.0, 0.0, 0.0, -1.54, 0.0, 4.1, 0.0, -5.8, -5.2, -0.0, 10.73, 11.03, 10.8, 10.37, 10.3, 10.59, 10.12, 10.12, 8.53, 6.97, 4.4, 3.07, 0.0, -5.0, -8.22, 11.18, 10.66, 10.12, 11.28, 11.99, 12.11, 10.36, 7.89, 6.31, 0.0, -5.77, -5.6, -4.51, -3.1, -1.54, -0.89, -3.25, -11.21, -11.45, -9.5, -9.06, -11.35, -11.38, -8.44, -7.94, -8.67, -9.08, -9.45, -8.55, -7.81, -6.44, -4.74, 0.0, -3.2, -5.06, -4.75, -5.29, -6.0, -5.98, 2.81, 11.9, 14.75, 14.75, 14.75, 15.2, 14.75, 13.99, 13.15, 12.52, 12.52, 12.96, 13.41, 6.2, 0.0, 0.0, 0.0, -8.43, -12.16, -13.8, -16.54, -12.33, -12.01, -10.43, -10.43, -12.07, -10.28, -10.28, -9.17, -10.12, -7.44, -9.17, 0.0, -11.62, -10.4, -2.82, 0.0, 0.0, 0.0, 0.0, 0.0, 0.0, 0.0, 0.0, 7.59, 10.41, 10.96, 10.38, 10.79, 10.88, 11.39, 11.41, 10.66, 10.01, 9.4, 9.4, 9.0, 5.2, -8.22, 10.38, 10.73, 11.93, 12.85, 13.7, 13.2, 12.6, 11.34, 9.48, 5.86, 0.0, -6.21, -6.9, -5.63, -4.52, -3.0, -3.1, -11.12, -11.61, -10.19, -9.31, -10.18, -11.7, -8.05, -8.43, -7.2, -6.99, -7.2, -7.58, -8.05, -6.4, -6.0, -6.4, -5.72, -5.72, -6.01, -6.24, -7.41, -8.18, 2.81, 10.12, 13.88, 14.75, 14.75, 14.31, 14.42, 13.99, 13.15, 12.3, 12.3, 13.41, 10.12, 0.0, 0.0, 0.0, 0.0, 0.0, -4.95, -4.67, -2.0, 0.0, 0.0, 0.0, 0.0, 0.0, 0.0, 0.0, 0.0, 0.0, -4.4, 0.0, 0.0, 0.0, -9.2, -3.25, 0.0, 5.2, 0.0, 0.0, 9.8, 12.39, 8.85, 8.22, 9.75, 9.39, 10.73, 10.73, 10.58, 10.62, 10.96, 11.45, 11.5, 11.75, 11.75, 12.29, 13.1, 9.9, 6.44, 9.75, 11.14, 13.25, 13.8, 14.25, 14.27, 14.58, 14.39, 13.51, 11.25, 9.17, 6.08, 1.43, -1.48, -2.91, -4.71, -4.98, -12.96, -12.52, -11.2, -9.8, -9.8, -9.48, -9.17, -4.2, -3.8, -4.0, -6.32, -7.87, -7.81, -6.7, -6.4, -8.3, -6.13, -6.13, -6.95, -7.36, -7.44, -8.94, 2.35, 7.93, 13.88, 14.75, 14.31, 14.31, 13.99, 13.57, 13.57, 12.72, 12.72, 12.39, 10.12, 0.0, 0.0, 0.0, 0.0, 0.0, 0.0, 0.0, 0.0, 1.17, 1.17, 1.17, 1.17, 1.13, 1.25, 2.72, 3.53, 0.0, 0.0, 0.0, 0.0, 0.0, 0.0, 0.0, 9.83, 11.18, -0.0, -0.0, 12.52, 12.96, 11.45, 10.73, 9.83, 8.67, 9.54, 9.97, 10.28, 9.83, 8.94, 9.39, 9.29, 9.46, 11.03, 11.45, 11.6, 12.24, 6.09, 8.49, 11.71, 13.37, 13.36, 13.41, 13.83, 14.3, 14.7, 15.24, 14.07, 13.51, 12.49, 9.7, 7.44, 3.68, 0.0, 0.0, -0.0, -12.96, -12.14, -10.8, -9.3, -9.67, -10.01, -11.99, -2.28, -1.93, -2.1, -3.25, -2.97, -2.83, -6.01, -6.7, -6.64, -7.37, -8.35, -7.62, -6.7, -7.6, 2.35, 6.4, 11.9, 13.88, 14.31, 12.27, 12.27, 11.9, 11.9, 11.53, 9.8, 10.12, 6.6, 0.0, 0.0, 0.0, 0.0, 0.0, 0.0, 0.0, 0.0, 0.0, 0.0, 1.23, 1.26, 1.15, 1.15, 1.25, 0.0, 0.0, -2.49, -4.8, 0.0, 0.0, 0.0, 6.64, 9.39, 10.28, 10.28, 0.0, 0.0, 0.0, 11.18, 11.18, 9.83, 9.33, 7.63, 7.81, 9.75, 9.75, 9.39, 8.94, 0.0, 0.0, 0.0, -0.0, 9.39, 5.6, 5.46, 8.22, 11.64, 12.96, 12.96, 12.9, 11.93, 11.91, 12.52, 12.24, 11.99, 11.28, 12.16, 11.38, 8.56, 5.63, 4.6, 9.3, 10.84, 7.27, -6.64, -9.21, -9.64, -9.55, -10.35, -12.87, -7.27, -3.82, -2.19, 0.0, 0.0, 0.0, -2.39, -4.22, -5.72, -6.18, -7.59, -6.67, -4.83, -3.6, 2.02, 6.4, 11.9, 13.57, 11.9, 12.27, 12.27, 12.27, 10.12, 10.12, 10.12, 10.12, 4.66, 4.81, 0.0, 0.0, 0.0, 0.0, 0.0, 0.0, 0.0, 0.0, 0.0, 0.0, 1.3, 1.3, 1.3, 0.0, 0.0, 0.0, -1.83, -4.15, -5.0, 0.0, 0.0, 6.95, 7.27, 8.4, 7.9, 0.0, 0.0, 0.0, 0.0, 10.73, 9.39, 8.94, 7.6, 7.6, 8.0, 6.95, 10.73, 0.0, -10.28, -8.49, 0.0, -3.6, -7.21, -2.7, 1.51, 9.27, 9.89, 9.6, 9.96, 9.6, 9.96, 9.96, 9.96, 11.18, 10.38, 9.46, 8.85, 7.93, 5.67, 2.41, 1.2, 6.63, 7.64, 7.27, 4.15, -6.45, -11.62, -11.51, -10.75, -10.32, -9.46, -10.35, -6.44, -3.39, -3.25, -2.49, -3.98, -3.32, -4.56, -4.47, -4.68, -4.6, -5.1, -5.1, 2.02, 5.31, 7.93, 11.9, 11.9, 11.9, 10.12, 8.18, 10.43, 10.12, 10.12, 4.66, 4.66, 4.81, 5.09, 0.0, 0.0, 0.0, 0.0, 0.0, 0.0, 0.0, 0.0, 0.0, 1.46, 1.34, 0.0, 0.0, 0.0, -1.42, -3.36, -3.81, -4.48, 0.0, 0.0, 3.8, 6.64, 8.18, 5.0, 0.0, 0.0, -4.8, 0.0, 9.83, 9.39, 8.05, 7.63, 7.2, 6.8, 5.69, 0.0, 0.0, 0.0, 0.0, 0.0, 0.0, -7.63, -6.64, 0.0, 9.3, 9.39, 8.4, 8.0, 6.32, 3.8, 2.83, 3.6, 9.54, 9.75, 7.59, 5.14, 2.25, 0.0, -1.76, 3.25, 10.05, 10.56, 10.58, 9.34, 6.95, 0.0, -11.09, -12.39, -11.06, -10.18, -8.94, -8.06, -7.89, -8.4, -6.95, -6.42, -5.1, -3.2, -3.99, -4.34, -4.44, -5.59, -5.59, 2.02, 2.35, 6.4, 9.8, 10.12, 7.93, 7.93, 8.18, 8.18, 8.18, 4.66, 4.66, 4.66, 4.81, 3.79, 0.0, 0.0, 0.0, 0.0, 0.0, 0.0, 0.0, 0.0, 1.56, 1.38, 1.26, 0.0, 0.0, 0.0, -1.46, -3.39, -6.16, -6.6, -3.96, 0.0, 0.0, 6.32, 0.0, 0.0, -4.6, -4.8, -6.64, 0.0, 5.69, 8.49, 8.49, 7.6, 8.05, 8.05, 8.49, 8.49, 8.94, 8.94, 6.32, 6.32, 0.0, 0.0, 0.0, 10.28, 10.73, 7.27, 8.4, 8.94, 7.6, 6.01, 5.37, 3.6, 5.69, 8.48, 4.05, 1.15, -1.58, -3.04, -1.76, 10.38, 13.37, 13.58, 12.56, 11.35, 9.78, 8.05, 5.85, 0.0, -12.45, -12.52, -9.39, -8.05, -8.05, -7.47, -7.44, -6.95, -5.1, -4.29, -4.94, -5.46, -6.11, -6.64, -6.64, 2.02, 2.35, 6.4, 7.69, 7.69, 7.93, 7.93, 7.93, 8.18, 8.18, 4.66, 4.66, 4.66, 4.81, 3.69, 3.58, 0.0, 0.0, 0.0, 0.0, 0.0, -1.94, 0.0, 0.0, 1.47, 1.38, 0.0, 0.0, 0.0, -1.65, -4.01, -6.52, -7.4, -6.6, -3.82, -3.2, -6.01, -6.95, -5.7, -5.7, -6.64, -8.49, -8.05, 0.0, 8.94, 8.94, 8.94, 8.94, 8.94, 8.94, 8.94, 8.94, 8.94, 8.94, 8.0, 6.32, 6.64, 8.8, 9.2, 7.27, 4.6, 4.4, 8.94, 8.48, 7.6, 7.37, 6.8, -7.2, -8.24, -3.92, -2.21, -1.59, 0.0, 4.52, 14.79, 15.91, 12.92, 10.68, 8.61, 7.74, 6.8, 6.09, 4.27, -12.96, -9.3, -8.24, -8.94, -8.05, -7.97, -9.89, -8.82, -5.69, -5.06, -6.73, -6.95, -6.95, -7.33, -7.33, 2.02, 4.52, 5.15, 6.2, 7.69, 7.69, 7.93, 3.47, 8.18, 8.18, 4.66, 4.66, 4.66, 4.66, 3.58, 0.0, 0.0, 0.0, 0.0, 0.0, 0.0, -2.21, -2.43, 0.0, 0.0, 0.0, 0.0, 0.0, 0.0, 0.0, -2.21, -5.09, -7.4, -7.2, -6.4, -6.7, -6.32, -6.87, -7.27, -6.2, -5.46, -4.2, -6.64, 0.0, 8.4, 8.4, 8.4, 8.0, 8.0, 8.0, 8.4, 8.0, 9.39, 8.94, 8.91, 8.91, 6.64, 4.4, 4.6, 0.0, 0.0, 0.0, 9.39, 7.07, 7.28, 6.9, 6.7, -8.49, -8.4, -7.02, -1.21, 2.37, 5.01, 6.65, 5.52, 2.79, 0.0, 0.0, 1.89, 2.72, 1.77, 1.58, 1.3, -12.3, -8.22, -9.39, -10.28, -11.02, -11.18, -10.2, -9.89, -8.0, -7.51, -7.06, -7.87, -6.95, -8.23, -8.23, 2.02, 4.52, 5.15, 6.2, 6.2, 6.2, 3.47, 3.47, 3.58, 4.66, 4.66, 4.66, 3.58, 3.58, 3.58, 0.0, 0.0, 0.0, 0.0, 0.0, 0.0, -2.57, -5.64, -7.4, -5.98, -2.72, 0.0, 0.0, 0.0, 0.0, 0.0, 0.0, -2.28, -5.23, -6.34, -5.46, -5.77, -4.8, -4.2, -1.75, -1.05, 0.0, 0.0, 2.46, 4.96, 7.27, 6.64, 6.64, 6.64, 6.32, 8.0, 8.94, 8.94, 8.94, 8.24, 8.0, 7.27, 4.96, 0.0, 0.0, 0.0, 0.0, 9.39, 6.64, 5.69, 5.69, 6.01, 8.94, 0.0, 0.0, 4.24, 6.3, 6.72, 4.88, 0.89, -5.86, -11.38, -11.06, -4.4, -1.78, -0.89, 0.0, 0.0, -11.6, -6.71, -10.28, -9.33, -8.18, -11.02, -9.83, -9.34, -10.79, -10.35, -8.99, -8.4, -8.93, -8.82, -8.82, 1.96, 2.35, 5.15, 5.15, 6.2, 3.36, 3.47, 3.47, 3.58, 3.58, 3.58, 3.58, 3.58, 3.58, 3.69, 0.0, 0.0, 0.0, 0.0, 0.0, 0.0, 0.0, -3.16, -4.81, -4.18, -3.79, 0.0, 0.0, 0.0, 1.83, 1.83, 0.0, 0.0, -2.05, -4.01, -3.69, -3.25, -2.82, -2.33, -0.89, 0.0, 0.93, 0.98, 2.13, 3.3, 5.95, 4.2, 4.2, 4.2, 4.0, 6.32, 8.49, 8.49, 8.49, 8.94, 7.6, 7.51, 7.51, 4.6, -6.64, -9.39, 0.0, 4.2, 2.97, 2.69, 4.96, 6.32, 9.39, 9.2, 9.46, 9.69, 8.83, 7.7, 4.01, -0.81, -8.84, -14.31, -13.63, -11.06, -8.22, -4.67, -1.88, 0.0, 0.0, -9.17, -4.6, 0.0, -6.95, -7.27, -9.75, -10.47, -11.99, -11.6, -9.75, -9.46, -9.04, -8.4, -8.4, 1.96, 2.28, 4.38, 5.15, 2.72, 2.72, 2.72, 2.81, 3.58, 6.6, 6.6, 3.58, 3.58, 3.58, 3.58, 0.0, 0.0, 0.0, 0.0, -2.09, 0.0, 0.0, 0.0, -2.21, -2.05, -2.11, 0.0, 0.0, 0.0, 0.0, 1.65, 0.0, 0.0, 0.0, 0.0, -1.78, -1.63, -1.43, -1.23, 0.0, 0.0, 0.0, 0.93, 1.04, 2.06, 3.6, 3.11, 4.4, 4.2, 4.0, 6.01, 8.05, 8.05, 8.05, 8.49, 8.67, 9.21, 9.89, 9.75, 0.0, -3.8, -0.0, 2.97, 5.21, 4.96, 6.64, 7.81, 9.11, 9.83, 11.18, 11.53, 11.72, 10.73, 5.69, -9.08, -12.4, -15.72, -16.28, -15.28, -12.87, -9.54, -5.34, -1.89, 0.0, 0.0, 0.0, 0.0, -7.81, -7.27, -8.85, -10.04, -11.03, -10.8, -9.75, -9.11, -7.89, -8.72, -8.72, 1.96, 1.96, 1.96, 2.28, 2.72, 2.72, 2.72, 2.81, 2.89, 6.6, 6.8, 3.69, 3.58, 3.58, 2.89, 0.0, 0.0, 0.0, 0.0, 0.0, 0.0, 0.0, 0.0, -1.89, -2.0, -2.11, -1.93, 0.0, 0.0, 0.0, 0.0, 0.0, 0.0, 0.0, 0.0, 0.0, 0.0, -1.48, 0.0, 0.0, 0.0, 0.0, 0.0, 0.99, 2.21, 2.26, 3.11, 0.0, 0.0, 5.69, 5.69, 6.8, 7.6, 8.05, 8.05, 8.49, 8.49, 9.7, 9.2, 8.49, -2.69, -0.0, 4.0, 8.48, 8.0, 8.67, 9.11, 9.39, 9.39, 8.0, 8.93, 11.71, 4.06, 3.04, -10.73, -8.82, -12.35, -14.42, -15.87, -15.49, -13.14, -10.27, -5.99, -3.02, -2.4, -1.77, -5.75, -6.42, -6.98, -2.93, -7.51, -7.9, 0.0, 0.0, -9.83, -8.72, -8.48, -8.48, 1.96, 1.96, 1.96, 1.96, 2.28, 2.28, 2.28, 2.81, 2.89, 3.58, 3.69, 3.69, 2.98, 2.89, 2.98, 0.0, 0.0, 0.0, 0.0, 0.0, 0.0, 0.0, 0.0, -1.77, -1.83, -1.78, -1.88, -1.93, 0.0, 0.0, 0.0, 0.0, 0.0, 0.0, 0.0, 0.0, 0.0, 0.0, 0.0, 0.0, 0.0, 0.0, 0.0, 1.11, 1.14, 1.18, 0.0, 0.0, 0.0, 3.6, 3.8, 7.2, 7.2, 7.21, 7.6, 7.6, 7.37, 8.05, 8.8, 6.95, 0.0, -5.69, -3.8, 8.06, 7.89, 8.82, 8.94, 9.39, 8.49, 8.91, -0.0, -4.11, 0.0, 2.6, 7.04, -14.3, -11.62, -11.0, -13.67, -14.35, -14.83, -12.51, -10.12, -9.44, -8.2, -6.87, -7.85, -8.73, -6.95, 9.39, 0.0, 0.0, 0.0, 0.0, -8.4, -8.3, -7.67, -7.67, 1.72, 1.72, 1.96, 1.96, 1.9, 2.2, 2.28, 2.35, 2.81, 2.89, 2.98, 2.98, 2.98, 2.98, 0.0, 0.0, 0.0, 0.0, 0.0, 0.0, 0.0, 0.0, -2.34, -1.94, -1.83, -1.68, -1.83, -1.88, -1.88, 0.0, 0.0, 0.0, 0.0, 0.0, 0.0, 0.0, 0.0, 0.0, 0.0, 0.0, 0.0, 0.0, 0.0, 0.0, 0.0, 0.0, 0.0, 0.0, 0.0, 1.14, 1.32, 3.11, 3.6, 6.8, 7.6, 7.6, 7.6, 6.36, 8.05, 2.83, 0.0, -3.6, -8.05, 7.07, 8.77, 8.77, 8.94, 9.39, 9.83, -10.28, -10.6, -6.44, -1.15, 3.2, 5.73, 5.38, 0.0, -15.27, -13.15, -11.23, -14.07, -13.89, -12.52, -11.5, -10.43, -8.85, -9.3, -8.8, 8.94, 8.94, 9.83, 0.0, -4.6, -4.4, -5.21, -7.15, -8.0, -8.0, 1.72, 1.72, 1.9, 1.9, 1.9, 1.9, 2.28, 2.35, 2.43, 2.89, 2.89, 2.98, 2.98, 0.0, 0.0, 0.0, 0.0, 0.0, 0.0, 0.0, 0.0, 0.0, -2.4, -2.05, -2.0, -1.68, -1.73, -1.83, -1.88, -1.88, 0.0, 0.0, 0.0, 0.0, 0.0, 0.0, 0.0, 0.0, 0.0, 0.0, 0.0, 0.0, 0.0, 0.0, 0.0, 0.0, 0.0, 0.0, 0.0, 0.0, 1.05, 1.07, 2.83, 3.4, 6.8, 8.05, 7.15, 7.15, 0.0, 0.0, 0.0, 0.0, 0.0, 8.49, 8.94, 8.94, 9.39, 10.28, 9.97, -10.28, -9.96, -7.82, -0.92, 1.6, 4.94, 8.02, 7.57, -2.92, -14.71, -11.33, -13.01, -14.26, -13.83, -12.37, -10.59, -9.08, -8.93, 8.94, 8.33, 8.38, 9.11, 0.0, -7.9, -6.95, -6.95, -6.95, -6.95, -6.95, 1.66, 1.66, 1.66, 1.9, 1.9, 1.96, 1.96, 2.35, 2.43, 2.89, 2.89, 2.98, 0.0, 0.0, 0.0, 0.0, 0.0, 0.0, 0.0, 0.0, 0.0, 0.0, -2.34, -2.11, -2.05, -2.0, -1.94, -2.0, -2.05, 0.0, 0.0, 0.0, 0.0, 0.0, 0.0, 0.0, 0.0, 0.0, 0.0, 0.0, 1.16, 1.02, 1.09, 1.16, 1.11, 1.05, 1.05, 0.0, 0.0, 0.0, 0.0, 0.0, 1.01, 1.18, 2.26, 6.0, 7.6, 7.15, 0.0, 0.0, 0.0, 0.0, 0.0, 5.69, 8.94, 8.49, 9.83, 10.28, 9.83, 0.0, -9.6, -8.22, -3.96, 0.0, 5.02, 7.27, 7.38, 4.16, -12.71, -12.03, -12.24, -13.49, -13.92, -12.6, -10.79, -9.42, 0.0, 7.89, 7.89, 7.89, 7.6, 4.2, -3.96, -9.3, -8.93, -7.59, -7.59, -7.59, 1.66, 1.66, 1.66, 1.9, 1.9, 1.96, 1.96, 2.02, 2.43, 2.43, 2.43, 2.5, 0.0, 0.0, 0.0, 0.0, 0.0, 0.0, 0.0, 0.0, 0.0, 0.0, -2.05, -2.05, -2.05, -2.05, -2.0, 0.0, 0.0, 0.0, 0.0, 0.0, 0.0, 0.0, 0.0, 0.0, 0.0, 0.0, 0.0, 0.0, 1.29, 1.07, 1.16, 2.28, 2.28, 2.28, 1.16, 0.0, 0.0, 0.0, 0.0, 0.0, 0.0, 0.0, 0.0, 0.0, 7.6, -0.0, -0.0, -0.0, 0.0, 0.0, 1.93, 6.32, 8.67, 10.28, 9.97, 9.83, 0.0, -10.28, -7.9, -6.97, -5.99, -5.99, -1.29, 0.0, 0.0, 2.65, -2.35, -11.62, -10.68, -10.32, -10.8, -12.79, -12.45, -12.96, 11.18, 7.81, 6.01, 6.01, 4.96, 2.28, 0.0, -2.93, -5.4, -6.7, -6.45, -6.45, 1.66, 1.66, 1.66, 1.66, 1.9, 1.96, 1.96, 2.02, 2.09, 2.43, 2.43, 2.5, 0.0, 0.0, 0.0, 0.0, 0.0, 0.0, 0.0, 0.0, 0.0, 0.0, -2.0, -2.05, -2.05, -2.05, 0.0, 0.0, 0.0, 0.0, 0.0, 0.0, 0.0, 0.0, 0.0, 0.0, 0.0, 0.0, 0.0, 0.0, 1.38, 1.23, 1.16, 1.93, 3.65, 4.44, 2.13, 0.0, -1.16, 0.0, 0.0, 0.0, 0.0, 0.0, 0.0, 0.0, 0.0, -0.0, -0.0, -0.0, 0.0, 0.0, 2.97, 7.6, 9.39, 10.28, 10.52, 8.55, 0.0, -9.83, -3.53, -1.98, -4.9, -8.24, -9.8, -9.92, -8.12, -5.36, -1.96, -12.58, -10.28, -6.64, 0.0, 0.0, 5.4, 10.6, 9.83, 7.6, 0.0, 3.8, 6.64, 0.0, 2.28, 0.0, 0.0, 0.0, 0.0, 0.0, 1.66, 1.66, 1.66, 1.66, 1.9, 1.96, 1.96, 2.02, 2.09, 2.43, 2.43, 2.43, 0.0, 0.0, 0.0, 0.0, 0.0, 0.0, 0.0, 0.0, 0.0, 0.0, 0.0, -2.0, -2.0, -2.34, 0.0, 0.0, 0.0, 0.0, 0.0, 0.0, 0.0, 0.0, 0.0, 0.0, 0.0, 0.0, 0.0, 0.0, 0.0, 1.38, 1.28, 1.4, 1.73, 1.84, 0.0, 0.0, -1.58, 0.0, 0.0, -0.82, -1.01, -1.1, 0.0, 0.0, 0.0, 0.0, -0.0, -0.0, 0.0, 0.0, 0.0, -0.0, 8.77, 8.77, 9.39, 8.93, 2.28, -5.21, -7.59, -3.68, -2.06, -4.51, -9.49, -11.73, -12.02, -9.12, -5.15, -2.81, -13.19, 0.0, 6.32, 5.63, 4.6, 6.98, 5.9, 4.6, 0.0, 0.0, 0.0, 0.0, 0.0, 2.13, 1.66, 0.0, 0.0, 0.0, 1.66, 1.66, 1.66, 1.66, 1.66, 1.96, 1.96, 2.02, 2.09, 2.09, 2.43, 2.43, 0.0, 0.0, 0.0, 0.0, 0.0, 0.0, 0.0, 0.0, 0.0, 0.0, 0.0, 0.0, 0.0, 0.0, 0.0, 0.0, 0.0, 0.0, 0.0, 0.0, 0.0, 0.0, 0.0, 0.0, 0.0, 0.0, 0.0, 0.0, 1.51, 1.48, 1.39, 1.33, 0.0, 0.0, 0.0, 0.0, 0.0, 0.0, 0.0, 0.0, 0.0, -0.88, 0.0, 0.0, 0.0, 0.0, 0.0, 0.0, 0.0, -8.49, -6.01, 4.0, 7.07, 7.2, 7.63, 6.64, 0.0, -1.93, -6.64, -7.27, -1.33, 0.0, -3.12, -9.54, -11.4, -9.35, -6.2, -4.81, -5.23, -4.23, 3.25, 4.15, 4.05, 4.36, 4.6, 3.82, 3.39, 0.0, 0.0, 0.0, 0.0, 2.2, 1.53, 1.53, 1.48, 1.48, 1.66, 1.66, 1.66, 1.66, 1.66, 1.96, 1.96, 2.02, 2.09, 2.09, 2.43, 2.43, 2.43, 0.0, 0.0, 0.0, 0.0, 0.0, 0.0, 0.0, 0.0, 0.0, 0.0, 0.0, 0.0, 0.0, 0.0, 0.0, 0.0, 0.0, 0.0, 0.0, 0.0, 0.0, 0.0, 0.0, 0.0, 0.0, 0.0, 0.0, 1.73, 1.58, 1.44, 1.39, 0.0, -1.76, -1.5, 0.0, 1.55, 1.16, 0.0, 0.0, 0.0, 0.0, 0.0, 0.0, 0.0, 0.0, 0.0, 0.0, -7.15, -6.8, -0.0, 5.69, 7.6, 7.2, 5.37, -8.94, -4.4, -1.69, -4.2, -9.83, -8.53, 0.0, 0.0, -5.81, -10.13, -8.85, -6.9, -4.97, -4.42, -4.23, 0.0, 3.36, 3.73, 3.82, 4.58, 4.5, 3.32, 0.0, 0.0, 0.0, 0.0, 0.0, 1.66, 2.91, 2.63, 2.63, 1.66, 1.66, 1.66, 1.66, 1.66, 1.96, 1.96, 2.02, 2.09, 2.09, 2.09, 2.43, 2.43, 2.43, 0.0, 0.0, 0.0, 0.0, 0.0, 0.0, 0.0, 0.0, 0.0, 0.0, 0.0, 0.0, 0.0, 0.0, 0.0, 0.0, 0.0, 0.0, 0.0, 0.0, 0.0, 0.0, 0.0, 0.0, 0.0, 1.73, 1.73, 1.63, 1.55, 1.45, 0.0, 0.0, 0.0, 0.0, 0.0, 0.0, 0.0, 0.0, 0.0, 0.0, 0.0, 0.0, 0.0, 0.0, 0.0, 0.0, 0.0, -5.37, -0.0, 7.21, 7.63, 7.63, 6.7, 0.0, -6.95, -2.49, 0.0, -0.0, -11.18, -8.78, -3.19, -2.67, -7.82, -2.1, -7.9, -2.72, -2.02, 0.0, 0.0, 3.24, 3.0, 4.81, 4.81, 4.66, 4.28, 1.98, 0.0, -8.85, -5.6, 0.0, 0.0, 3.14, 2.45, 2.45, 1.61, 1.61, 1.66, 1.66, 1.66, 1.96, 3.81, 3.93, 3.93, 2.09, 2.09, 2.09, 2.09, 2.09, 0.0, 0.0, 0.0, 0.0, 0.0, 0.0, 0.0, 0.0, 0.0, 0.0, 0.0, -2.21, 0.0, 0.0, 0.0, 0.0, 0.0, 0.0, 0.0, 0.0, 0.0, 0.0, 0.0, 0.0, 1.94, 1.94, 1.73, 1.68, 1.66, 1.33, 1.45, 1.58, 0.0, 0.0, 0.0, 0.0, 0.0, 0.0, 0.0, 0.0, 0.0, 0.0, 0.0, 0.0, 0.0, 0.0, 0.0, 0.0, 8.05, 8.05, 7.15, 6.32, 4.22, 2.54, -0.0, 0.0, 9.83, 11.18, -6.45, -9.17, -7.95, -2.48, 0.0, 9.48, 3.96, 0.0, -1.23, 0.0, 0.0, 2.79, 4.23, 5.31, 5.38, 3.87, 3.56, 3.29, 1.98, 0.0, -3.82, -3.96, -2.45, 1.38, 1.25, 1.25, 1.61, 1.61, 1.66, 1.66, 1.9, 3.68, 3.81, 3.93, 3.93, 2.09, 2.09, 2.09, 2.09, 2.09, 2.15, 0.0, 0.0, 0.0, 0.0, 0.0, 0.0, 0.0, 0.0, 0.0, 0.0, -2.5, 0.0, 0.0, 0.0, 0.0, 0.0, 0.0, 0.0, 0.0, 0.0, 0.0, 0.0, 2.15, 1.89, 1.94, 1.94, 1.89, 3.36, 2.82, 1.45, 1.52, 0.0, 0.0, 0.0, -1.28, 0.0, 0.0, 0.0, 0.0, 0.0, 0.0, 0.0, 0.0, 0.0, 0.0, 0.0, 0.0, 7.6, 8.05, 8.05, 5.69, 2.4, 2.06, -0.0, -0.0, 9.39, 5.0, -1.77, -4.81, -6.24, -1.55, 3.37, 4.78, 2.88, 0.0, -4.18, -4.23, 0.0, 3.39, 5.35, 4.81, 4.55, 4.08, 2.81, 2.93, 2.28, 1.84, 0.0, -2.93, -2.37, -2.37, 0.0, 0.0, 1.61, 1.61, 1.66, 1.9, 1.9, 3.68, 3.81, 3.81, 2.02, 2.02, 2.09, 2.09, 2.09, 2.09, 2.09, 0.0, 0.0, 0.0, 0.0, 0.0, 0.0, 0.0, 0.0, 0.0, -2.21, -2.5, 0.0, 0.0, 0.0, 0.0, 0.0, 0.0, 0.0, 0.0, 0.0, 0.0, 0.0, 2.15, 1.89, 1.89, 1.89, 1.89, 3.47, 3.32, 2.82, 1.45, 0.0, 0.0, -1.5, -1.39, -1.22, -1.09, 0.0, 0.0, 0.0, 0.0, 0.0, 0.0, 0.0, 0.0, 0.0, 1.55, 8.05, 7.15, 0.0, -0.0, -0.0, 2.69, -0.0, 2.83, 7.27, 8.8, 4.1, 0.0, -1.58, -0.89, 1.78, 3.28, 1.71, -1.55, -5.4, -6.17, 0.0, 4.1, 5.28, 4.58, 3.14, 1.98, 2.08, 2.0, 2.0, 2.19, 1.23, 0.0, 0.0, -1.98, -1.71, -1.71, 1.61, 1.61, 1.66, 1.9, 1.9, 3.68, 3.81, 3.36, 1.77, 1.77, 1.77, 1.83, 1.83, 2.09, 2.09, 2.15, 0.0, 0.0, 0.0, 0.0, 0.0, 0.0, 0.0, -2.21, -2.5, -2.5, 0.0, 0.0, 0.0, 0.0, 0.0, 0.0, 0.0, 0.0, 0.0, 0.0, 0.0, 2.09, 2.09, 1.89, 1.89, 2.15, 4.38, 4.32, 2.46, 1.16, 0.0, -1.58, -1.64, -1.44, -1.33, -1.28, -1.09, -1.04, 0.0, 0.0, 0.0, 0.0, 0.0, 0.0, 0.0, 0.0, 0.0, 0.0, 0.0, 0.0, -0.0, 6.01, 6.32, 4.0, 6.32, 9.83, 8.53, 3.47, 0.0, -2.49, -3.47, -2.45, -3.39, -3.18, -2.0, 0.0, 0.0, 0.0, 2.06, 3.14, 2.32, 2.19, 2.19, 2.19, 2.19, 2.19, 2.19, 1.16, 0.0, 0.0, -1.33, -3.32, 1.61, 1.61, 1.61, 1.66, 1.9, 3.25, 3.36, 3.36, 1.77, 1.77, 1.77, 1.77, 1.77, 1.77, 1.83, 1.89, 0.0, 0.0, 0.0, 0.0, 0.0, 0.0, -2.21, -2.21, -2.57, -2.5, 0.0, 0.0, 0.0, 0.0, 0.0, 0.0, 0.0, 0.0, 0.0, 0.0, 0.0, 2.02, 2.09, 2.09, 2.09, 2.15, 4.98, 4.8, 3.35, 1.14, 0.0, -1.64, -3.32, -3.32, -3.19, -2.71, -2.6, -1.16, -1.05, 0.0, 0.0, 0.0, 0.0, 0.0, 0.0, 0.0, 0.0, 0.0, 0.0, 0.0, 0.0, 5.37, 6.01, 7.6, 6.01, 8.8, 6.45, 1.83, 1.55, -0.78, -4.81, -6.85, -6.36, -3.52, 1.37, 4.81, 1.9, 0.0, 0.0, 2.13, 3.14, 2.52, 2.52, 1.16, 1.16, 1.11, 1.11, 1.05, 0.0, 0.0, -1.09, -1.33, 1.61, 1.61, 1.61, 1.66, 3.25, 3.25, 3.25, 3.36, 1.77, 1.77, 1.77, 1.77, 1.77, 1.77, 1.83, 1.83, 0.0, 0.0, 0.0, 0.0, 0.0, 0.0, -2.21, -2.15, -2.5, -2.43, 0.0, 0.0, 0.0, 0.0, 0.0, 0.0, 0.0, 0.0, 0.0, 0.0, 0.0, 0.0, 0.0, 0.0, 0.0, 2.43, 2.63, 2.6, 0.0, 0.0, 0.0, -3.68, -4.1, -4.1, -3.44, -3.32, -2.71, -1.28, -1.05, 0.0, 0.0, 0.0, 0.0, 0.0, 0.0, 0.0, 0.0, 0.0, 0.0, 0.0, 0.0, -0.0, 5.69, 8.06, 7.6, -0.0, 0.0, 0.0, 3.16, 3.93, 0.0, -4.67, -6.81, -1.51, 8.31, 6.9, 3.81, 2.13, 2.54, 2.45, 3.04, 2.62, 2.28, 1.05, 1.16, 0.0, 0.0, 0.0, 0.0, 0.0, -0.97, -1.09, 1.61, 1.61, 1.61, 3.14, 3.25, 3.25, 3.25, 3.36, 1.72, 1.77, 1.77, 1.77, 1.77, 1.77, 1.83, 1.83, 0.0, 0.0, 0.0, 0.0, 0.0, 0.0, -2.21, -2.21, -2.5, -2.43, -2.43, 0.0, 0.0, 0.0, 0.0, 0.0, 0.0, 0.0, 0.0, 0.0, 0.0, 0.0, 0.0, 0.0, 0.0, 0.0, 0.0, 0.0, -2.6, -2.54, -1.77, -2.02, -2.28, -2.2, -1.9, -3.44, -1.44, -1.33, -1.26, 0.0, 0.0, 0.0, 0.0, 0.0, 0.0, 0.0, 0.0, 0.0, 0.0, 0.0, 0.0, -0.0, 5.37, 6.01, 7.6, -0.0, -9.2, -2.71, 1.5, 4.54, 4.77, 0.87, -4.0, -5.0, 11.28, 6.7, 3.47, 2.45, 1.71, 0.0, 0.0, 1.16, 0.97, 0.0, 0.0, 0.0, 0.0, -0.97, -0.97, -1.05, -1.05, -1.05, 1.61, 1.61, 3.14, 3.14, 3.14, 3.25, 3.25, 3.36, 1.72, 1.72, 1.72, 1.77, 1.77, 1.77, 1.77, 1.83, 0.0, 0.0, 0.0, 0.0, 0.0, 0.0, -2.15, -2.15, -2.5, -2.43, -2.89, 0.0, 0.0, 0.0, 0.0, 0.0, 0.0, 0.0, 0.0, 0.0, 0.0, 0.0, 0.0, 0.0, 0.0, 0.0, 0.0, 0.0, -2.28, -3.44, -1.77, 0.0, 0.0, 0.0, -1.61, -1.5, -1.39, -1.22, 0.0, 0.0, 0.0, 0.0, -1.32, -1.25, -1.32, -1.14, -1.19, 0.0, 0.0, 0.0, 0.0, 8.05, 6.4, 5.69, 3.8, -6.01, -10.28, -6.64, -2.71, 0.0, 1.59, 4.15, 3.87, 5.4, 5.95, 4.3, 2.93, 0.81, 0.0, -1.38, -1.44, -1.01, -0.86, -0.74, -1.58, -1.58, -1.7, -1.7, -1.91, -2.08, -2.08, -2.08, 3.14, 3.14, 3.14, 3.14, 3.14, 3.25, 3.25, 1.66, 1.72, 1.72, 1.72, 1.72, 1.77, 1.77, 1.77, 1.83, 0.0, 0.0, 0.0, 0.0, 0.0, 0.0, 0.0, -2.15, -2.43, -2.35, -2.89, 0.0, 0.0, 0.0, 0.0, 0.0, 0.0, 0.0, 0.0, 0.0, 0.0, 0.0, 0.0, 0.0, 0.0, 0.0, 0.0, 0.0, -1.98, -2.06, -1.9, 0.0, 0.0, 0.0, -1.39, -1.39, -1.28, -1.11, -1.2, -1.14, -1.14, -1.32, -1.32, -1.25, -1.4, -1.23, -2.4, -5.37, 0.0, 0.0, 0.0, 8.49, 6.79, 5.69, -0.0, -6.01, -8.94, -7.87, -6.7, -5.43, -0.84, 4.16, 8.38, 10.48, 9.17, 7.2, 4.12, 0.75, -1.83, -4.58, -4.65, -4.28, -3.44, -3.11, -3.11, -2.99, -3.19, -3.55, -3.82, -2.82, -2.82, -2.82, 3.04, 3.04, 3.14, 3.14, 3.14, 3.14, 1.66, 1.66, 1.66, 1.72, 1.72, 1.72, 1.77, 1.77, 1.77, 0.0, 0.0, 0.0, 0.0, 0.0, 0.0, 0.0, 0.0, -2.15, -2.5, -2.43, -2.89, 0.0, 0.0, 0.0, 0.0, 0.0, 0.0, 0.0, 0.0, 0.0, 0.0, 0.0, 0.0, 0.0, 0.0, 0.0, 0.0, 0.0, -1.98, -1.98, -1.77, -1.77, -1.44, -1.33, -1.09, -1.04, -1.05, -1.05, -1.2, -1.14, -1.07, -1.25, -1.25, -1.25, -2.66, -2.49, -2.16, -2.98, -5.69, 0.0, 0.0, 7.6, 6.8, 3.4, -0.0, -5.69, -8.94, -7.87, -5.29, -3.98, 1.64, 5.5, 9.88, 13.48, 14.76, 12.66, 8.01, 3.35, -2.48, -8.44, -7.96, -7.43, -6.15, -4.93, -5.16, -4.68, -5.2, -5.4, -4.47, -4.47, -4.47, -4.47, 3.04, 3.04, 3.04, 3.14, 3.14, 3.14, 1.66, 1.66, 1.66, 1.72, 1.72, 1.72, 1.77, 1.77, 1.77, 0.0, 0.0, 0.0, 0.0, 0.0, 0.0, 0.0, 0.0, -2.15, -2.43, -2.43, -2.89, 0.0, 0.0, 0.0, 0.0, 0.0, 0.0, 0.0, 0.0, 0.0, 0.0, 0.0, 0.0, 0.0, 0.0, 0.0, 0.0, -2.2, -2.06, -1.98, -2.06, -3.44, -2.93, -2.71, -2.49, -1.11, -1.0, -1.0, -1.14, -1.14, -1.14, -1.25, -1.18, -2.26, -2.12, -2.49, -2.99, -3.22, -2.98, 0.0, 0.0, 0.0, 5.37, 3.4, -0.0, -6.01, -8.49, -8.4, -4.4, 4.6, 8.94, 8.15, 10.12, 13.33, 14.2, 13.67, 11.0, 7.64, 4.67, -11.17, -11.12, -9.59, -8.72, -7.69, -5.4, -5.52, -6.41, -6.67, -6.24, -5.35, -5.35, -5.35, 3.04, 3.04, 3.04, 3.14, 3.14, 1.61, 1.61, 1.66, 1.66, 1.72, 1.72, 1.72, 1.72, 1.77, 0.0, 0.0, 0.0, 0.0, 0.0, 0.0, 0.0, 0.0, 0.0, -2.15, -2.5, -2.89, 0.0, 0.0, 0.0, 0.0, 0.0, 0.0, 0.0, 0.0, 0.0, 0.0, 0.0, 0.0, 0.0, 0.0, 0.0, 0.0, -2.28, -2.63, -2.54, -3.82, -3.96, -3.44, -3.04, -2.82, -2.6, -2.28, -2.17, -1.14, -1.14, -1.14, -1.07, -1.25, -2.26, -2.12, -1.98, -2.8, -2.99, -3.49, -3.79, 0.0, 0.0, 0.0, -0.0, -0.0, -3.8, -2.69, -0.0, -0.0, 9.39, 9.33, 9.96, 10.09, 10.94, 12.18, 12.27, 10.85, 11.14, 11.72, 9.9, 1.48, -12.65, -11.04, -10.03, -7.95, -6.97, -6.71, -7.9, -7.06, -7.13, -6.7, -6.7, -6.7, 3.04, 3.04, 3.04, 3.04, 1.61, 1.61, 1.61, 1.66, 1.66, 1.66, 1.72, 1.72, 1.72, 1.77, 0.0, 0.0, 0.0, 0.0, 0.0, 0.0, 0.0, 0.0, 0.0, 0.0, 0.0, 0.0, 0.0, 0.0, 0.0, 0.0, 0.0, 0.0, 0.0, 0.0, 0.0, 0.0, 0.0, 0.0, 0.0, 0.0, 0.0, -2.72, -2.72, -2.63, -4.1, -3.96, -4.1, -4.93, -4.39, -2.82, -2.6, -2.49, -2.58, -2.46, -2.21, -2.21, -2.09, -2.09, -2.26, -2.12, -2.8, -2.8, -3.22, -4.11, -3.79, -5.69, 0.0, 0.0, -0.0, -0.0, -0.0, -0.0, -0.0, 6.64, 9.39, 9.54, 10.08, 10.32, 10.91, 11.13, 10.79, 8.83, 11.54, 13.32, 12.53, 8.2, -1.73, -13.07, -9.16, -8.53, -8.22, -7.9, -7.59, -7.27, -7.59, -6.98, -6.98, -6.98, 3.04, 3.04, 3.04, 3.04, 1.55, 1.61, 1.61, 1.66, 1.66, 1.66, 1.72, 1.72, 1.72, 0.0, 0.0, 0.0, 0.0, 0.0, 0.0, 0.0, 0.0, 0.0, 0.0, 0.0, 0.0, 0.0, 0.0, 0.0, 0.0, 0.0, 0.0, 0.0, 0.0, 0.0, 0.0, 0.0, 0.0, 0.0, 0.0, 0.0, -2.63, -2.63, -2.72, -4.98, -4.1, -5.6, -5.11, -5.11, -4.75, -2.82, -2.95, -2.82, -2.7, -2.58, -2.21, -2.21, -2.21, -2.21, -2.09, -3.0, -3.0, -3.0, -3.91, -4.11, -4.29, -6.4, -7.6, 0.0, 3.6, 3.6, 4.0, -0.0, -0.0, 4.2, 9.39, 9.39, 9.39, 9.83, 10.28, 10.75, 10.48, 9.69, 10.31, 10.96, 9.55, 7.46, -13.7, -10.73, -10.0, -6.2, -6.98, -7.59, -7.27, -5.7, -5.7, -8.55, -8.55, -8.55, 3.04, 2.93, 3.04, 1.55, 1.55, 1.61, 1.61, 1.61, 1.66, 1.66, 1.72, 1.72, 0.0, 0.0, 0.0, 0.0, 0.0, 0.0, 0.0, 0.0, 0.0, 0.0, 0.0, 0.0, 0.0, 0.0, 0.0, 0.0, 0.0, 0.0, 0.0, 0.0, 0.0, 0.0, 0.0, 0.0, 0.0, 0.0, 0.0, -2.54, -2.63, -2.63, -4.98, -4.98, -5.8, -5.8, -5.11, -4.93, -3.32, -3.19, -2.95, -2.82, -2.7, -2.46, -2.69, -2.69, -3.6, -3.17, -2.99, -2.64, -2.64, -3.72, -3.47, -3.63, -4.29, -6.36, -7.15, -5.37, -0.0, -0.0, 6.01, 6.32, 6.64, -0.0, 4.2, 8.48, 9.39, 9.39, 9.83, 10.58, 10.4, 10.04, 8.24, 6.09, 5.3, 1.16, -16.09, -7.27, -9.64, -5.06, -3.39, -5.29, -7.59, -7.59, 0.0, -0.0, -0.0, -0.0, 2.93, 2.93, 2.93, 1.55, 1.55, 1.55, 1.61, 1.61, 1.66, 1.66, 1.72, 0.0, 0.0, 0.0, 0.0, 0.0, 0.0, 0.0, 0.0, 0.0, 0.0, 0.0, 0.0, 0.0, 0.0, 0.0, 0.0, 0.0, 0.0, 0.0, 0.0, 0.0, 0.0, 0.0, 0.0, 0.0, 0.0, 0.0, -3.14, -2.54, -2.54, -4.81, -4.98, -6.0, -5.8, -5.8, -4.93, -4.93, -3.32, -3.19, -2.95, -2.7, -3.11, -2.97, -4.0, -3.6, -3.6, -3.4, -2.99, -3.55, -3.33, -3.72, -4.29, -4.43, -4.65, -4.66, -6.71, -6.36, -4.74, -3.2, -0.0, 0.0, 9.39, 0.0, -0.0, 4.2, 8.48, 8.94, 9.39, 10.08, 10.38, 9.58, 7.54, 2.9, 0.0, -1.17, 12.01, -0.0, -0.0, 0.0, 0.0, -3.11, -8.18, -10.28, 0.0, -0.0, -0.0, -0.0, 2.93, 2.93, 1.5, 1.5, 1.55, 1.55, 1.55, 1.61, 1.61, 1.66, 0.0, 0.0, 0.0, 0.0, 0.0, 0.0, 0.0, 0.0, 0.0, 0.0, 0.0, 0.0, 0.0, 0.0, 0.0, 0.0, 0.0, 0.0, 0.0, 0.0, 0.0, 0.0, 0.0, 0.0, 0.0, 0.0, 0.0, -3.04, -3.04, -5.8, -4.81, -4.81, -6.67, -5.8, -5.8, -5.8, -5.6, -3.96, -3.32, -3.19, -3.39, -3.25, -3.25, -4.2, -4.0, -3.8, -3.6, -3.4, -3.55, -3.55, -3.33, -3.9, -4.29, -4.74, -4.65, -4.66, -7.15, -6.71, -6.51, -5.95, -4.22, -7.2, -8.49, 0.0, -0.0, 6.64, 8.0, 8.94, 9.39, 9.33, 10.41, 8.58, 5.2, 0.0, -0.75, 0.0, 17.43, 9.8, 10.4, 0.0, 0.0, 0.0, -8.0, -8.94, -8.0, -4.0, -4.0, -4.0, 2.93, 2.93, 1.5, 1.5, 1.55, 1.55, 1.55, 1.61, 1.61, 0.0, 0.0, 0.0, 0.0, 0.0, 0.0, 0.0, 0.0, 0.0, 0.0, 0.0, 0.0, 0.0, 0.0, 0.0, 0.0, 0.0, 0.0, 0.0, 0.0, 0.0, 0.0, 0.0, 0.0, 0.0, 0.0, 0.0, -3.04, -3.04, -5.6, -5.6, -4.81, -6.67, -6.67, -7.19, -5.8, -5.8, -3.96, -3.96, -3.82, -3.68, -3.39, -3.25, -4.4, -4.2, -4.0, -3.8, -4.71, -4.46, -3.77, -3.55, -3.9, -4.29, -4.29, -4.74, -5.01, -5.09, -4.92, -4.92, -6.94, -6.79, -6.32, -6.7, -7.63, -7.6, -7.15, -0.0, 6.32, 8.94, 4.2, 6.95, 8.8, 7.27, 2.11, 1.67, 1.55, 1.25, 16.66, 11.88, 11.87, 0.0, 0.0, 6.32, 0.0, -7.6, -5.69, -2.54, -2.54, -2.54, 2.93, 2.93, 1.5, 1.5, 1.5, 1.55, 1.55, 1.61, 0.0, 0.0, 0.0, 0.0, 0.0, 0.0, 0.0, 0.0, 0.0, 0.0, 0.0, 0.0, 0.0, 0.0, 0.0, 0.0, 0.0, 0.0, 0.0, 0.0, 0.0, 0.0, 0.0, 0.0, 0.0, 0.0, 0.0, -3.96, -3.04, -5.6, -5.4, -6.44, -6.44, -6.44, -7.19, -7.19, -5.8, -3.96, -3.96, -3.96, -3.96, -3.68, -3.39, -4.6, -4.4, -4.2, -4.0, -4.71, -4.71, -4.46, -4.87, -4.42, -4.16, -4.58, -4.29, -5.15, -5.75, -5.94, -5.81, -5.36, -7.15, -7.6, -6.8, -5.69, -7.07, -7.07, -6.01, -3.8, -6.01, -8.94, -6.64, 0.0, 0.0, 0.0, 1.25, 2.65, 4.05, 4.42, 11.38, 8.85, 7.9, 2.6, -0.0, 5.7, 4.22, -0.0, -2.69, -1.84, -1.84, -1.84, 2.82, 2.82, 1.5, 1.5, 1.5, 1.5, 1.55, 0.0, 0.0, 0.0, 0.0, 0.0, 0.0, 0.0, 0.0, 0.0, 0.0, 0.0, 0.0, 0.0, 0.0, 0.0, 0.0, 0.0, 0.0, 0.0, 0.0, 0.0, 0.0, 0.0, 0.0, 0.0, 0.0, 0.0, -4.1, -3.96, -5.6, -5.6, -7.24, -6.21, -6.44, -7.82, -6.94, -5.6, -5.6, -3.96, -3.96, -3.96, -3.96, -3.68, -4.8, -4.6, -4.4, -4.2, -4.0, -4.71, -4.71, -5.15, -4.87, -4.42, -4.87, -5.06, -4.74, -5.49, -6.13, -6.14, -5.81, -5.81, -5.81, -7.6, -7.2, -5.69, -6.01, -4.71, -2.83, -4.0, -6.32, -8.94, -9.39, -9.39, -9.39, -4.6, -1.84, 0.0, 2.43, 3.16, 14.79, 7.54, 5.86, 2.97, -0.0, 2.02, 5.36, 2.69, -0.0, -0.0, -0.0, -0.0, 2.82, 2.82, 1.44, 1.5, 1.44, 1.5, 1.5, 0.0, 0.0, 0.0, 0.0, 0.0, 0.0, 0.0, 0.0, 0.0, 0.0, 0.0, 0.0, 0.0, 0.0, 0.0, 0.0, 0.0, 0.0, 0.0, 0.0, 0.0, 0.0, 0.0, 0.0, 0.0, 0.0, -4.1, -4.1, -6.94, -5.6, -7.24, -6.21, -7.54, -7.82, -6.94, -5.6, -5.6, -3.96, -3.96, -3.96, -3.96, -3.96, -5.2, -4.8, -4.6, -4.4, -4.2, -5.21, -4.96, -4.71, -5.44, -5.15, -4.87, -5.37, -5.06, -5.49, -5.49, -5.95, -6.23, -6.26, -5.81, -5.81, -7.6, -7.63, -6.7, -5.37, -3.6, -2.54, -3.8, -8.0, -8.67, -9.39, -9.39, -9.11, -7.87, -6.7, -4.28, -0.85, 0.0, 0.0, 5.31, 5.21, 3.91, 1.14, 1.33, 3.49, 4.96, 2.83, -0.0, -0.0, -0.0, 1.44, 1.44, 1.44, 1.44, 1.44, 1.5, 0.0, 0.0, 0.0, 0.0, 0.0, 0.0, 0.0, 0.0, 0.0, 0.0, 0.0, 0.0, 0.0, 0.0, 0.0, 0.0, 0.0, 0.0, 0.0, 0.0, 0.0, 0.0, 0.0, 0.0, 0.0, 0.0, -4.24, -4.1, -6.94, -5.6, -7.24, -7.24, -7.54, -7.54, -7.82, -6.44, -6.44, -4.48, -4.48, -3.82, -3.96, -3.96, -5.6, -5.2, -4.8, -5.29, -4.4, -5.46, -5.21, -4.96, -4.71, -5.15, -5.15, -4.87, -5.06, -5.06, -5.49, -5.84, -6.32, -6.4, -6.17, -6.26, -6.26, -8.05, -7.81, -6.8, -5.06, -5.37, -5.69, -7.07, -8.48, -8.67, -9.21, -9.39, -9.39, -9.13, -8.38, -6.21, -4.16, -2.48, -2.36, -10.75, 4.65, 3.91, 2.69, 1.26, 1.47, 4.0, 4.0, 2.17, 2.17, 2.17, 1.39, 1.39, 1.39, 1.44, 1.44, 1.44, 0.0, 0.0, 0.0, 0.0, 0.0, 0.0, 0.0, 0.0, 0.0, 0.0, 0.0, 0.0, 0.0, 0.0, 0.0, 0.0, 0.0, 0.0, 0.0, 0.0, 0.0, 0.0, 0.0, 0.0, 0.0, -4.24, -4.24, -7.19, -6.94, -7.51, -7.24, -7.54, -7.54, -7.54, -7.54, -6.21, -4.48, -4.48, -4.48, -4.48, -3.82, -5.4, -5.4, -5.0, -5.52, -5.29, -6.42, -5.46, -5.21, -5.21, -5.72, -5.15, -5.15, -4.87, -5.37, -5.37, -5.84, -5.84, -6.32, -6.4, -6.36, -6.61, -7.06, -7.15, -7.15, -8.33, -6.8, -6.32, -6.7, -7.6, -8.0, -8.67, -8.4, -9.21, -9.39, -9.7, -8.93, -7.41, -6.05, -4.23, -2.65, -2.8, 0.0, 4.8, 3.15, 2.83, 2.83, 3.49, 3.32, 2.17, 2.17, 2.17, 1.39, 1.39, 1.39, 1.39, 1.39, 0.0, 0.0, 0.0, 0.0, 0.0, 0.0, 0.0, 0.0, 0.0, 0.0, 0.0, 0.0, 0.0, 0.0, 0.0, 0.0, 0.0, 0.0, 0.0, 0.0, 0.0, 0.0, 0.0, 0.0, 0.0, -4.1, -4.24, -4.24, -7.19, -5.6, -7.51, -7.24, -7.54, -7.54, -7.54, -6.21, -6.21, -4.48, -4.48, -4.32, -4.32, -5.98, -6.21, -5.98, -5.52, -5.52, -6.42, -6.42, -6.42, -5.46, -5.21, -5.72, -5.44, -5.44, -5.69, -5.37, -5.84, -5.84, -6.18, -6.7, -6.6, -6.57, -6.88, -6.88, -7.31, -7.52, -8.94, -7.63, -6.01, -3.2, -6.7, -7.15, -7.51, -8.4, -9.13, -9.83, -9.75, -8.73, -7.14, -5.15, -4.21, -2.52, -0.92, -1.3, 0.0, -0.0, 4.0, 4.83, 4.6, 3.32, 2.06, 2.06, 2.06, 1.39, 1.39, 1.39, 1.39, 1.39, 0.0, 0.0, 0.0, 0.0, 0.0, 0.0, 0.0, 0.0, 0.0, 0.0, 0.0, 0.0, 0.0, 0.0, 0.0, 0.0, 0.0, 0.0, 0.0, 0.0, 0.0, 0.0, 0.0, 0.0, -3.14, -4.1, -4.24, -7.19, -6.94, -7.51, -7.51, -7.54, -7.54, -7.26, -5.98, -6.21, -4.48, -4.32, -4.32, -5.75, -5.75, -5.75, -5.75, -5.75, -5.52, -6.42, -6.42, -6.42, -6.42, -5.46, -6.3, -6.01, -5.72, -5.44, -5.69, -5.69, -6.18, -6.18, -6.18, -6.99, -6.6, -6.21, -7.12, -7.37, -7.37, -7.31, -7.08, -6.71, 0.0, -0.0, -5.37, -6.01, -6.64, -7.51, -9.64, -10.28, -10.18, -9.7, -7.65, -5.43, -3.48, -2.65, -0.84, 0.0, 0.0, 0.0, 0.0, 8.94, 8.06, 6.01, 3.8, 3.8, 3.8, 1.39, 1.39, 1.39, 1.39, 1.39, 0.0, 0.0, 0.0, 0.0, 0.0, 0.0, 0.0, 0.0, 0.0, 0.0, 0.0, 0.0, 0.0, 0.0, 0.0, 0.0, 0.0, 0.0, 0.0, 0.0, 0.0, 0.0, 0.0, 0.0, -3.14, -4.1, -4.24, -7.19, -6.94, -7.51, -7.51, -7.54, -7.54, -7.26, -5.98, -6.21, -4.48, -4.32, -4.32, -5.75, -5.75, -5.75, -5.75, -5.75, -5.52, -6.42, -6.42, -6.42, -6.42, -5.46, -6.3, -6.01, -5.72, -5.44, -5.69, -5.69, -6.18, -6.18, -6.18, -6.99, -6.6, -6.21, -7.12, -7.37, -7.37, -7.31, -7.08, -6.71, 0.0, -0.0, -5.37, -6.32, -6.64, -7.51, -9.64, -10.28, -10.18, -8.93, -7.65, -5.4, -3.46, -2.64, -0.84, 0.0, 0.0, 0.0, 0.0, 0.0, 2.17, 4.0, 4.0, 4.0, 4.0]}]